PORTS® Data Listing: 8770613 Morgans Point, Barbours Cut, TX

CO-OPS RAW PORTS DATA

************************      PRELIMINARY DATA      ************************** 

     THIS RAW DATA HAS NOT BEEN SUBJECT TO THE NATIONAL OCEAN SERVICE'S        
     QUALITY CONTROL OR QUALITY ASSURANCE PROCEDURES AND DOES NOT MEET         
     THE CRITERIA AND STANDARDS OF OFFICIAL NATIONAL OCEAN SERVICE             
     DATA.  IT IS RELEASED FOR LIMITED PUBLIC USE AS PRELIMINARY DATA TO       
     BE USED ONLY WITH APPROPRIATE CAUTION.                                    

************************      PRELIMINARY DATA      ************************** 


       CD   -   Calendar date
       T    -   Time
       TZ   -   Timezone
       PW   -   Predicted water level (feet above MLLW)
       OW   -   Observed water level (feet above MLLW)
       WS   -   Wind speed (knots)
       WD   -   Wind direction (degrees true)
       WG   -   Wind gust (knots)
       AT   -   Air temperature (degrees farenheit)
       WT   -   Water temperature (degrees farenheit)
       AP   -   Air pressure (millibars)
       SA   -   Salinty (PSU - Practical Salinity Units)
       SG   -   Specific gravity
       RH   -   Relative humidity
       AG   -   Air gap (feet)
       VI   -   Visibility (nautical miles)

       ** NOTE **
       A variable that has its data fields filled with "9"s, indicates that
       data was not collected for that sample period.
       **********


STATION NAME: Morgans Point (8770613)
****************************************************************************************************
    CD       T    TZ    PW     OW    WS   WD   WG    AT    WT    AP    SA    SG     RH    AG   VI
****************************************************************************************************
2019/12/07 15:18 CST    0.48   0.49    8   42   10  69.3  64.9 1022.0 15.5  1.011 -99.9 -99.99 -9.99
2019/12/07 15:24 CST    0.49   0.57    6   54    9  69.3  64.9 1022.0 15.6  1.011 -99.9 -99.99 -9.99
2019/12/07 15:30 CST    0.51   0.57    7   50    9  69.4  64.8 1022.0 15.6  1.011 -99.9 -99.99 -9.99
2019/12/07 15:36 CST    0.52   0.53    5   13    8  69.8  64.8 1022.0 15.6  1.011 -99.9 -99.99 -9.99
2019/12/07 15:42 CST    0.53   0.51    8   40   11  69.3  64.8 1021.9 15.7  1.011 -99.9 -99.99 -9.99
2019/12/07 15:48 CST    0.55   0.64    6   23   11  69.6  64.8 1021.9 15.8  1.012 -99.9 -99.99 -9.99
2019/12/07 15:54 CST    0.56   0.59    7   22   10  69.6  64.6 1021.9 15.9  1.012 -99.9 -99.99 -9.99
2019/12/07 16:00 CST    0.57   0.67    7   37    8  69.4  64.6 1021.8 15.4  1.011 -99.9 -99.99 -9.99
2019/12/07 16:06 CST    0.59   0.62    7   45   10  69.3  64.6 1021.8 15.5  1.011 -99.9 -99.99 -9.99
2019/12/07 16:12 CST    0.60   0.62    7   42    8  69.1  64.6 1021.8 16.1  1.012 -99.9 -99.99 -9.99
2019/12/07 16:18 CST    0.61   0.71    5   38    9  69.1  64.6 1021.8 16.1  1.012 -99.9 -99.99 -9.99
2019/12/07 16:24 CST    0.62   0.74    6   29    8  69.3  64.6 1021.7 16.2  1.012 -99.9 -99.99 -9.99
2019/12/07 16:30 CST    0.64   0.74    4   28    6  69.3  64.8 1021.8 16.1  1.012 -99.9 -99.99 -9.99
2019/12/07 16:36 CST    0.65   0.75    5   37    7  68.9  64.8 1021.8 16.0  1.012 -99.9 -99.99 -9.99
2019/12/07 16:42 CST    0.66   0.82    5   33    6  68.5  64.8 1021.7 16.1  1.012 -99.9 -99.99 -9.99
2019/12/07 16:48 CST    0.67   0.80    5   48    6  68.4  64.8 1021.8 16.1  1.012 -99.9 -99.99 -9.99
2019/12/07 16:54 CST    0.68   0.80    6   49    6  68.4  64.6 1021.8 16.2  1.012 -99.9 -99.99 -9.99
2019/12/07 17:00 CST    0.69   0.82    6   42    7  68.2  64.6 1021.7 16.2  1.012 -99.9 -99.99 -9.99
2019/12/07 17:06 CST    0.70   0.85    6   48    7  68.0  64.6 1021.8 16.1  1.012 -99.9 -99.99 -9.99
2019/12/07 17:12 CST    0.71   0.87    5   47    5  67.6  64.6 1021.8 15.8  1.011 -99.9 -99.99 -9.99
2019/12/07 17:18 CST    0.72   0.85    5   49    5  67.3  64.6 1021.8 15.3  1.011 -99.9 -99.99 -9.99
2019/12/07 17:24 CST    0.73   0.86    5   57    5  66.9  64.6 1021.8 15.3  1.011 -99.9 -99.99 -9.99
2019/12/07 17:30 CST    0.74   0.87    5   60    6  66.7  64.4 1021.8 15.5  1.011 -99.9 -99.99 -9.99
2019/12/07 17:36 CST    0.75   0.83    5   59    6  66.6  64.4 1021.8 16.0  1.012 -99.9 -99.99 -9.99
2019/12/07 17:42 CST    0.75   0.92    4   60    6  66.6  64.4 1021.9 15.6  1.011 -99.9 -99.99 -9.99
2019/12/07 17:48 CST    0.76   0.78    4   62    5  65.7  64.4 1021.8 15.3  1.011 -99.9 -99.99 -9.99
2019/12/07 17:54 CST    0.77   0.82    3   64    5  65.7  64.4 1021.9 15.3  1.011 -99.9 -99.99 -9.99
2019/12/07 18:00 CST    0.77   0.93    4   63    4  65.5  64.4 1021.9 15.3  1.011 -99.9 -99.99 -9.99
2019/12/07 18:06 CST    0.78   0.92    4   57    4  65.1  64.4 1021.9 15.3  1.011 -99.9 -99.99 -9.99
2019/12/07 18:12 CST    0.78   0.97    3   67    4  64.6  64.4 1022.0 15.5  1.011 -99.9 -99.99 -9.99
2019/12/07 18:18 CST    0.79   0.93    4   59    4  63.9  64.4 1022.0 15.2  1.011 -99.9 -99.99 -9.99
2019/12/07 18:24 CST    0.79   0.97    5   67    5  64.0  64.4 1022.1 15.4  1.011 -99.9 -99.99 -9.99
2019/12/07 18:30 CST    0.79   1.06    4   64    5  63.7  64.4 1022.2 15.5  1.011 -99.9 -99.99 -9.99
2019/12/07 18:36 CST    0.80   0.96    5   69    5  64.0  64.4 1022.3 15.4  1.011 -99.9 -99.99 -9.99
2019/12/07 18:42 CST    0.80   1.01    5   63    6  63.9  64.4 1022.3 15.3  1.011 -99.9 -99.99 -9.99
2019/12/07 18:48 CST    0.80   0.82    5   65    6  63.7  64.4 1022.3 15.3  1.011 -99.9 -99.99 -9.99
2019/12/07 18:54 CST    0.80   1.00    6   67    7  63.7  64.4 1022.3 15.3  1.011 -99.9 -99.99 -9.99
2019/12/07 19:00 CST    0.80   1.01    6   73    7  62.8  64.4 1022.3 15.3  1.011 -99.9 -99.99 -9.99
2019/12/07 19:06 CST    0.80   1.01    6   84    7  62.4  64.4 1022.4 15.3  1.011 -99.9 -99.99 -9.99
2019/12/07 19:12 CST    0.80   1.02    6   93    7  62.2  64.4 1022.5 15.4  1.011 -99.9 -99.99 -9.99
2019/12/07 19:18 CST    0.80   1.03    5   84    6  62.4  64.4 1022.5 15.4  1.011 -99.9 -99.99 -9.99
2019/12/07 19:24 CST    0.80   1.07    6  102    7  62.4  64.4 1022.4 15.4  1.011 -99.9 -99.99 -9.99
2019/12/07 19:30 CST    0.80   1.04    7   98    7  62.1  64.4 1022.3 15.4  1.011 -99.9 -99.99 -9.99
2019/12/07 19:36 CST    0.79   1.07    6  100    8  61.9  64.2 1022.3 15.5  1.011 -99.9 -99.99 -9.99
2019/12/07 19:42 CST    0.79   1.09    5  114    7  61.0  64.4 1022.3 15.5  1.011 -99.9 -99.99 -9.99
2019/12/07 19:48 CST    0.79   1.12    6  123    7  61.2  64.2 1022.3 15.6  1.011 -99.9 -99.99 -9.99
2019/12/07 19:54 CST    0.79   1.09    7  130    9  61.2  64.2 1022.3 15.5  1.011 -99.9 -99.99 -9.99
2019/12/07 20:00 CST    0.79   1.13    6  124    8  61.2  64.2 1022.3 15.6  1.011 -99.9 -99.99 -9.99
2019/12/07 20:06 CST    0.78   1.03    7  130    8  61.2  64.2 1022.3 15.6  1.011 -99.9 -99.99 -9.99
2019/12/07 20:12 CST    0.78   1.13    5  123    7  60.8  64.2 1022.3 15.7  1.011 -99.9 -99.99 -9.99
2019/12/07 20:18 CST    0.78   1.05    5  119    6  61.0  64.2 1022.3 15.6  1.011 -99.9 -99.99 -9.99
2019/12/07 20:24 CST    0.78   1.09    4  112    5  60.6  64.2 1022.3 15.5  1.011 -99.9 -99.99 -9.99
2019/12/07 20:30 CST    0.78   1.08    4  124    6  60.4  64.2 1022.3 15.5  1.011 -99.9 -99.99 -9.99
2019/12/07 20:36 CST    0.78   1.13    4  129    5  60.6  64.2 1022.3 15.5  1.011 -99.9 -99.99 -9.99
2019/12/07 20:42 CST    0.77   1.07    5  127    6  60.6  64.2 1022.2 15.6  1.011 -99.9 -99.99 -9.99
2019/12/07 20:48 CST    0.77   1.10    4  123    6  60.6  64.2 1022.3 15.6  1.011 -99.9 -99.99 -9.99
2019/12/07 20:54 CST    0.77   1.05    5  117    5  60.4  64.2 1022.1 15.6  1.011 -99.9 -99.99 -9.99
2019/12/07 21:00 CST    0.77   1.05    4  114    5  60.3  64.2 1022.2 15.6  1.011 -99.9 -99.99 -9.99
2019/12/07 21:06 CST    0.77   1.18    4  116    6  60.3  64.2 1022.1 15.6  1.011 -99.9 -99.99 -9.99
2019/12/07 21:12 CST    0.76   1.04    5  114    7  60.3  64.2 1022.0 15.5  1.011 -99.9 -99.99 -9.99
2019/12/07 21:18 CST    0.76   1.09    5  118    6  60.1  64.2 1022.0 15.5  1.011 -99.9 -99.99 -9.99
2019/12/07 21:24 CST    0.76   1.06    5  120    6  60.1  64.2 1021.9 15.5  1.011 -99.9 -99.99 -9.99
2019/12/07 21:30 CST    0.76   1.01    5  116    6  60.1  64.2 1021.9 15.5  1.011 -99.9 -99.99 -9.99
2019/12/07 21:36 CST    0.75   1.16    4  123    5  60.1  64.2 1022.0 15.4  1.011 -99.9 -99.99 -9.99
2019/12/07 21:42 CST    0.75   1.07    4  119    5  60.1  64.2 1022.0 15.4  1.011 -99.9 -99.99 -9.99
2019/12/07 21:48 CST    0.75   1.00    5  120    6  60.4  64.2 1021.9 15.2  1.011 -99.9 -99.99 -9.99
2019/12/07 21:54 CST    0.75   1.05    4  122    6  60.4  64.0 1021.9 15.7  1.012 -99.9 -99.99 -9.99
2019/12/07 22:00 CST    0.74   1.14    4  120    6  60.3  64.0 1021.8 15.8  1.012 -99.9 -99.99 -9.99
2019/12/07 22:06 CST    0.74   1.06    3  117    6  60.1  64.2 1021.9 15.7  1.011 -99.9 -99.99 -9.99
2019/12/07 22:12 CST    0.74   0.99    4  118    5  59.7  64.2 1021.9 16.0  1.012 -99.9 -99.99 -9.99
2019/12/07 22:18 CST    0.74   1.04    4  120    4  59.9  64.2 1021.9 16.1  1.012 -99.9 -99.99 -9.99
2019/12/07 22:24 CST    0.74   1.04    3  116    4  59.9  64.2 1021.9 16.2  1.012 -99.9 -99.99 -9.99
2019/12/07 22:30 CST    0.73   1.02    4  119    4  59.7  64.2 1022.0 16.3  1.012 -99.9 -99.99 -9.99
2019/12/07 22:36 CST    0.73   1.05    4  123    4  59.7  64.2 1021.9 16.3  1.012 -99.9 -99.99 -9.99
2019/12/07 22:42 CST    0.73   1.07    4  116    4  59.7  64.2 1021.9 16.3  1.012 -99.9 -99.99 -9.99
2019/12/07 22:48 CST    0.73   1.04    4  108    4  59.5  64.2 1021.8 16.4  1.012 -99.9 -99.99 -9.99
2019/12/07 22:54 CST    0.73   1.07    3   99    4  59.9  64.2 1021.8 16.4  1.012 -99.9 -99.99 -9.99
2019/12/07 23:00 CST    0.73   1.04    4   98    4  59.9  64.2 1021.8 16.4  1.012 -99.9 -99.99 -9.99
2019/12/07 23:06 CST    0.73   1.06    4  105    5  59.9  64.2 1021.6 16.4  1.012 -99.9 -99.99 -9.99
2019/12/07 23:12 CST    0.73   1.06    4  108    5  59.7  64.2 1021.5 16.4  1.012 -99.9 -99.99 -9.99
2019/12/07 23:18 CST    0.73   1.07    4  118    5  59.5  64.2 1021.5 16.4  1.012 -99.9 -99.99 -9.99
2019/12/07 23:24 CST    0.73   1.05    5  126    6  59.4  64.2 1021.3 16.4  1.012 -99.9 -99.99 -9.99
2019/12/07 23:30 CST    0.73   1.04    5  133    7  59.4  64.2 1021.3 16.4  1.012 -99.9 -99.99 -9.99
2019/12/07 23:36 CST    0.73   1.01    5  136    6  59.5  64.2 1021.3 16.5  1.012 -99.9 -99.99 -9.99
2019/12/07 23:42 CST    0.73   1.05    4  132    6  59.7  64.2 1021.3 16.5  1.012 -99.9 -99.99 -9.99
2019/12/07 23:48 CST    0.73   1.03    4  129    5  59.7  64.2 1021.2 16.5  1.012 -99.9 -99.99 -9.99
2019/12/07 23:54 CST    0.74   1.01    4  133    5  59.5  64.2 1021.1 16.5  1.012 -99.9 -99.99 -9.99
2019/12/08 00:00 CST    0.74   1.04    4  129    5  59.5  64.2 1021.1 15.7  1.012 -99.9 -99.99 -9.99
2019/12/08 00:06 CST    0.74   1.02    5  127    5  59.5  64.2 1021.1 16.5  1.012 -99.9 -99.99 -9.99
2019/12/08 00:12 CST    0.74   1.00    4  124    6  59.5  64.2 1021.0 15.5  1.011 -99.9 -99.99 -9.99
2019/12/08 00:18 CST    0.75   1.00    6  105    7  59.2  64.2 1021.1 15.5  1.011 -99.9 -99.99 -9.99
2019/12/08 00:24 CST    0.75   1.05    5   93    7  59.2  64.2 1021.1 15.9  1.012 -99.9 -99.99 -9.99
2019/12/08 00:30 CST    0.76   1.04    7   98    9  58.8  64.2 1021.0 15.9  1.012 -99.9 -99.99 -9.99
2019/12/08 00:36 CST    0.76   0.98    7   86    8  58.6  64.4 1021.1 16.2  1.012 -99.9 -99.99 -9.99
2019/12/08 00:42 CST    0.76   0.91    5   91    8  58.5  64.4 1021.0 16.1  1.012 -99.9 -99.99 -9.99
2019/12/08 00:48 CST    0.77   0.98    4   82    7  58.1  64.2 1021.0 15.9  1.012 -99.9 -99.99 -9.99
2019/12/08 00:54 CST    0.77   1.11    4   73    5  57.9  64.2 1021.0 16.2  1.012 -99.9 -99.99 -9.99
2019/12/08 01:00 CST    0.77   1.00    4   73    6  57.7  64.2 1021.0 16.2  1.012 -99.9 -99.99 -9.99
2019/12/08 01:06 CST    0.78   1.00    4   75    6  57.7  64.2 1021.0 16.2  1.012 -99.9 -99.99 -9.99
2019/12/08 01:12 CST    0.78   1.08    5   76    6  57.4  64.2 1020.9 16.1  1.012 -99.9 -99.99 -9.99
2019/12/08 01:18 CST    0.79   1.13    5   79    6  57.2  64.2 1020.9 16.8  1.012 -99.9 -99.99 -9.99
2019/12/08 01:24 CST    0.79   0.99    5   69    7  57.2  64.2 1020.8 16.2  1.012 -99.9 -99.99 -9.99
2019/12/08 01:30 CST    0.79   1.06    6   86    7  56.8  64.2 1020.7 16.5  1.012 -99.9 -99.99 -9.99
2019/12/08 01:36 CST    0.80   0.98    7   79    8  56.8  64.2 1020.7 16.6  1.012 -99.9 -99.99 -9.99
2019/12/08 01:42 CST    0.80   1.08    7   82    7  56.8  64.2 1020.7 15.7  1.011 -99.9 -99.99 -9.99
2019/12/08 01:48 CST    0.80   1.14    6   73    8  57.0  64.2 1020.6 15.9  1.012 -99.9 -99.99 -9.99
2019/12/08 01:54 CST    0.81   1.14    5   78    7  56.8  64.2 1020.5 16.7  1.012 -99.9 -99.99 -9.99
2019/12/08 02:00 CST    0.81   1.13    6   82    8  56.8  64.2 1020.4 16.8  1.012 -99.9 -99.99 -9.99
2019/12/08 02:06 CST    0.82   0.89    7   85    9  57.0  64.2 1020.3 16.9  1.012 -99.9 -99.99 -9.99
2019/12/08 02:12 CST    0.82   1.04    7   87    9  57.2  64.2 1020.2 16.9  1.012 -99.9 -99.99 -9.99
2019/12/08 02:18 CST    0.82   1.09    6   94    8  57.2  64.2 1020.1 16.9  1.012 -99.9 -99.99 -9.99
2019/12/08 02:24 CST    0.83   1.17    8   95    9  57.2  64.2 1020.0 17.0  1.012 -99.9 -99.99 -9.99
2019/12/08 02:30 CST    0.83   1.17    8   93   10  57.2  64.2 1020.0 17.0  1.012 -99.9 -99.99 -9.99
2019/12/08 02:36 CST    0.84   1.14    7   91    9  57.4  64.2 1020.0 17.0  1.012 -99.9 -99.99 -9.99
2019/12/08 02:42 CST    0.84   1.02    6   89    8  57.4  64.2 1020.1 17.0  1.012 -99.9 -99.99 -9.99
2019/12/08 02:48 CST    0.84   1.18    7   88    8  57.4  64.2 1020.2 16.9  1.012 -99.9 -99.99 -9.99
2019/12/08 02:54 CST    0.85   1.18    7   89    9  57.2  64.2 1020.2 16.9  1.012 -99.9 -99.99 -9.99
2019/12/08 03:00 CST    0.85   1.22    7   87    9  57.2  64.2 1020.2 16.9  1.012 -99.9 -99.99 -9.99
2019/12/08 03:06 CST    0.85   1.15    7   87    9  57.0  64.2 1020.1 17.0  1.012 -99.9 -99.99 -9.99
2019/12/08 03:12 CST    0.85   1.16    8   87   10  57.0  64.2 1020.0 17.0  1.012 -99.9 -99.99 -9.99
2019/12/08 03:18 CST    0.86   1.17    7   93    9  57.0  64.2 1020.1 17.0  1.012 -99.9 -99.99 -9.99
2019/12/08 03:24 CST    0.86   1.21    6   90    9  56.8  64.2 1020.1 17.0  1.012 -99.9 -99.99 -9.99
2019/12/08 03:30 CST    0.86   1.15    7   93    8  57.0  64.2 1020.1 17.0  1.012 -99.9 -99.99 -9.99
2019/12/08 03:36 CST    0.86   1.24    7   99    8  57.0  64.2 1020.1 17.0  1.012 -99.9 -99.99 -9.99
2019/12/08 03:42 CST    0.86   1.18    6   92    8  57.0  64.2 1020.1 17.0  1.012 -99.9 -99.99 -9.99
2019/12/08 03:48 CST    0.86   1.18    6   89    7  56.8  64.2 1020.0 17.0  1.012 -99.9 -99.99 -9.99
2019/12/08 03:54 CST    0.86   1.23    6   96    8  57.0  64.2 1019.8 17.1  1.013 -99.9 -99.99 -9.99
2019/12/08 04:00 CST    0.86   1.22    7   93    8  56.8  64.2 1019.7 17.1  1.013 -99.9 -99.99 -9.99
2019/12/08 04:06 CST    0.86   1.14    7   95    8  56.8  64.2 1019.7 17.1  1.013 -99.9 -99.99 -9.99
2019/12/08 04:12 CST    0.85   1.20    8   96    9  56.8  64.2 1019.6 17.1  1.013 -99.9 -99.99 -9.99
2019/12/08 04:18 CST    0.85   1.16    7   92    9  57.0  64.2 1019.6 17.1  1.013 -99.9 -99.99 -9.99
2019/12/08 04:24 CST    0.85   1.16    7   91   10  57.0  64.2 1019.5 17.1  1.013 -99.9 -99.99 -9.99
2019/12/08 04:30 CST    0.84   1.18    7   97    9  56.8  64.2 1019.3 17.1  1.013 -99.9 -99.99 -9.99
2019/12/08 04:36 CST    0.84   1.15    8   99    9  56.8  64.2 1019.2 17.1  1.013 -99.9 -99.99 -9.99
2019/12/08 04:42 CST    0.83   1.18    8   99    9  56.8  64.2 1019.1 17.1  1.013 -99.9 -99.99 -9.99
2019/12/08 04:48 CST    0.83   1.15    8   97    9  56.8  64.2 1019.1 17.1  1.013 -99.9 -99.99 -9.99
2019/12/08 04:54 CST    0.82   1.13    7   98    8  56.8  64.2 1019.1 17.1  1.013 -99.9 -99.99 -9.99
2019/12/08 05:00 CST    0.82   1.20    7   95    8  56.8  64.2 1019.1 17.1  1.013 -99.9 -99.99 -9.99
2019/12/08 05:06 CST    0.81   1.16    7   93    9  56.8  64.2 1019.1 17.1  1.013 -99.9 -99.99 -9.99
2019/12/08 05:12 CST    0.80   1.17    7   92    8  56.8  64.2 1019.1 17.1  1.013 -99.9 -99.99 -9.99
2019/12/08 05:18 CST    0.80   1.15    7   91    9  56.8  64.2 1019.1 17.1  1.013 -99.9 -99.99 -9.99
2019/12/08 05:24 CST    0.79   1.15    6   86    8  56.7  64.2 1019.1 17.1  1.013 -99.9 -99.99 -9.99
2019/12/08 05:30 CST    0.78   1.16    7   85    8  56.5  64.2 1019.1 16.2  1.012 -99.9 -99.99 -9.99
2019/12/08 05:36 CST    0.77   1.18    7   84    8  56.5  64.2 1019.1 16.3  1.012 -99.9 -99.99 -9.99
2019/12/08 05:42 CST    0.76   1.16    8   86    9  56.3  64.2 1019.1 16.3  1.012 -99.9 -99.99 -9.99
2019/12/08 05:48 CST    0.75   1.16    8   88   10  56.3  64.2 1019.1 16.3  1.012 -99.9 -99.99 -9.99
2019/12/08 05:54 CST    0.74   1.17    7   83    9  56.3  64.2 1019.2 16.3  1.012 -99.9 -99.99 -9.99
2019/12/08 06:00 CST    0.73   0.99    7   86    8  56.1  64.2 1019.2 16.3  1.012 -99.9 -99.99 -9.99
2019/12/08 06:06 CST    0.72   1.12    6   85    8  55.9  64.2 1019.2 16.3  1.012 -99.9 -99.99 -9.99
2019/12/08 06:12 CST    0.70   1.06    7   89    9  55.9  64.0 1019.2 16.3  1.012 -99.9 -99.99 -9.99
2019/12/08 06:18 CST    0.69   1.15    6   88    9  56.1  64.0 1019.2 16.3  1.012 -99.9 -99.99 -9.99
2019/12/08 06:24 CST    0.68   0.98    7   90    8  55.8  64.0 1019.1 16.3  1.012 -99.9 -99.99 -9.99
2019/12/08 06:30 CST    0.66   1.05    6   81    8  55.8  64.0 1019.1 16.2  1.012 -99.9 -99.99 -9.99
2019/12/08 06:36 CST    0.65   0.98    6   86    8  55.8  64.0 1019.1 16.3  1.012 -99.9 -99.99 -9.99
2019/12/08 06:42 CST    0.63   0.93    6   85    9  55.9  64.0 1019.1 16.3  1.012 -99.9 -99.99 -9.99
2019/12/08 06:48 CST    0.62   1.02    6   87    8  55.8  64.0 1019.1 16.2  1.012 -99.9 -99.99 -9.99
2019/12/08 06:54 CST    0.60   1.03    5   82    8  55.9  64.0 1019.1 16.2  1.012 -99.9 -99.99 -9.99
2019/12/08 07:00 CST    0.58   0.97    5   80    6  55.6  64.0 1019.0 16.3  1.012 -99.9 -99.99 -9.99
2019/12/08 07:06 CST    0.57   0.98    5   85    6  55.6  64.0 1018.9 16.2  1.012 -99.9 -99.99 -9.99
2019/12/08 07:12 CST    0.55   0.93    6   88    7  55.8  63.9 1018.9 16.3  1.012 -99.9 -99.99 -9.99
2019/12/08 07:18 CST    0.53   0.97    6   91    8  55.9  63.9 1018.9 16.3  1.012 -99.9 -99.99 -9.99
2019/12/08 07:24 CST    0.51   0.91    7   97    9  55.9  63.9 1019.0 16.3  1.012 -99.9 -99.99 -9.99
2019/12/08 07:30 CST    0.49   0.87    7   92    9  55.9  63.9 1019.0 16.3  1.012 -99.9 -99.99 -9.99
2019/12/08 07:36 CST    0.47   0.94    7   98    9  55.9  63.9 1019.0 16.9  1.012 -99.9 -99.99 -9.99
2019/12/08 07:42 CST    0.45   0.87    6   90    9  56.1  63.9 1019.2 16.4  1.012 -99.9 -99.99 -9.99
2019/12/08 07:48 CST    0.43   0.84    6   86    8  56.3  63.7 1019.1 17.1  1.013 -99.9 -99.99 -9.99
2019/12/08 07:54 CST    0.41   0.86    7   89    9  56.3  63.7 1019.2 17.1  1.013 -99.9 -99.99 -9.99
2019/12/08 08:00 CST    0.40   0.86    7   88    8  56.7  63.7 1019.2 17.1  1.013 -99.9 -99.99 -9.99
2019/12/08 08:06 CST    0.38   0.81    7   89    9  56.7  63.7 1019.3 17.1  1.013 -99.9 -99.99 -9.99
2019/12/08 08:12 CST    0.36   0.84    6   86    8  56.5  63.7 1019.5 17.1  1.013 -99.9 -99.99 -9.99
2019/12/08 08:18 CST    0.34   0.78    6   80    7  56.5  63.7 1019.7 17.1  1.013 -99.9 -99.99 -9.99
2019/12/08 08:24 CST    0.32   0.76    7   79    9  56.7  63.7 1019.7 17.0  1.013 -99.9 -99.99 -9.99
2019/12/08 08:30 CST    0.30   0.78    6   73    7  56.7  63.9 1019.8 16.9  1.012 -99.9 -99.99 -9.99
2019/12/08 08:36 CST    0.28   0.64    6   74    7  56.8  63.9 1019.7 16.9  1.012 -99.9 -99.99 -9.99
2019/12/08 08:42 CST    0.27   0.69    6   81    8  57.0  63.9 1019.6 16.9  1.012 -99.9 -99.99 -9.99
2019/12/08 08:48 CST    0.25   0.80    7   78    8  57.0  63.9 1019.6 16.9  1.012 -99.9 -99.99 -9.99
2019/12/08 08:54 CST    0.23   0.44    7   76    8  56.8  63.9 1019.6 16.8  1.012 -99.9 -99.99 -9.99
2019/12/08 09:00 CST    0.22   0.65    6   74    8  57.2  63.9 1019.7 16.8  1.012 -99.9 -99.99 -9.99
2019/12/08 09:06 CST    0.20   0.61    7   76    8  57.4  63.9 1019.8 16.8  1.012 -99.9 -99.99 -9.99
2019/12/08 09:12 CST    0.19   0.63    6   77    8  57.4  63.9 1020.0 16.9  1.012 -99.9 -99.99 -9.99
2019/12/08 09:18 CST    0.17   0.58    6   79    7  57.4  63.9 1019.9 16.9  1.012 -99.9 -99.99 -9.99
2019/12/08 09:24 CST    0.16   0.51    7   73    8  57.4  63.9 1019.9 16.9  1.012 -99.9 -99.99 -9.99
2019/12/08 09:30 CST    0.14   0.59    8   72    9  57.6  63.9 1019.9 16.9  1.012 -99.9 -99.99 -9.99
2019/12/08 09:36 CST    0.13   0.54    8   72    9  57.4  63.9 1020.0 16.9  1.012 -99.9 -99.99 -9.99
2019/12/08 09:42 CST    0.11   0.15    7   74    9  57.0  63.9 1020.0 16.9  1.012 -99.9 -99.99 -9.99
2019/12/08 09:48 CST    0.10   0.42    8   75    9  57.0  64.0 1020.0 16.8  1.012 -99.9 -99.99 -9.99
2019/12/08 09:54 CST    0.09   0.51    8   69    9  57.4  64.0 1020.0 16.8  1.012 -99.9 -99.99 -9.99
2019/12/08 10:00 CST    0.07   0.39    6   70    8  57.7  64.0 1020.2 16.8  1.012 -99.9 -99.99 -9.99
2019/12/08 10:06 CST    0.06   0.50    6   68    8  57.6  64.0 1020.2 16.8  1.012 -99.9 -99.99 -9.99
2019/12/08 10:12 CST    0.05   0.46    6   69    7  58.1  64.0 1020.3 16.8  1.012 -99.9 -99.99 -9.99
2019/12/08 10:18 CST    0.03   0.47    6   79    8  58.6  64.0 1019.9 16.7  1.012 -99.9 -99.99 -9.99
2019/12/08 10:24 CST    0.02   0.51    8   92   10  58.8  64.0 1019.7 16.7  1.012 -99.9 -99.99 -9.99
2019/12/08 10:30 CST    0.01   0.45    7   85    8  59.2  64.0 1019.7 16.7  1.012 -99.9 -99.99 -9.99
2019/12/08 10:36 CST    0.00   0.52    7   90    8  59.9  64.0 1019.6 16.7  1.012 -99.9 -99.99 -9.99
2019/12/08 10:42 CST   -0.01   0.49    8   92    9  60.1  64.2 1019.4 16.5  1.012 -99.9 -99.99 -9.99
2019/12/08 10:48 CST   -0.02   0.53    7   94    9  60.6  64.2 1019.2 16.4  1.012 -99.9 -99.99 -9.99
2019/12/08 10:54 CST   -0.03   0.40   10   98   11  61.0  64.2 1019.1 16.4  1.012 -99.9 -99.99 -9.99
2019/12/08 11:00 CST   -0.04   0.48    8   94   11  61.2  64.2 1019.2 16.4  1.012 -99.9 -99.99 -9.99
2019/12/08 11:06 CST   -0.04   0.46    7   88   10  61.5  64.2 1019.2 16.4  1.012 -99.9 -99.99 -9.99
2019/12/08 11:12 CST   -0.05   0.46    7   89   10  61.9  64.2 1019.2 16.3  1.012 -99.9 -99.99 -9.99
2019/12/08 11:18 CST   -0.06   0.41    7   94   10  63.0  64.2 1019.1 16.3  1.012 -99.9 -99.99 -9.99
2019/12/08 11:24 CST   -0.06   0.38    9  104   11  63.9  64.2 1018.9 16.3  1.012 -99.9 -99.99 -9.99
2019/12/08 11:30 CST   -0.07   0.43   11  114   12  64.2  64.2 1018.8 16.3  1.012 -99.9 -99.99 -9.99
2019/12/08 11:36 CST   -0.07   0.43   10  117   14  64.4  64.2 1018.5 16.3  1.012 -99.9 -99.99 -9.99
2019/12/08 11:42 CST   -0.07   0.46   11  115   15  64.4  64.2 1018.3 16.3  1.012 -99.9 -99.99 -9.99
2019/12/08 11:48 CST   -0.07   0.53   11  121   14  64.6  64.4 1018.3 16.2  1.012 -99.9 -99.99 -9.99
2019/12/08 11:54 CST   -0.07   0.41   10  118   14  65.3  64.4 1018.3 16.2  1.012 -99.9 -99.99 -9.99
2019/12/08 12:00 CST   -0.07   0.45   10  121   13  65.1  64.4 1018.2 16.2  1.012 -99.9 -99.99 -9.99
2019/12/08 12:06 CST   -0.07   0.48   11  126   13  65.3  64.4 1018.1 16.2  1.012 -99.9 -99.99 -9.99
2019/12/08 12:12 CST   -0.07   0.48   10  117   14  65.5  64.4 1017.9 16.2  1.012 -99.9 -99.99 -9.99
2019/12/08 12:18 CST   -0.06   0.62   10  120   13  65.7  64.4 1017.7 16.2  1.012 -99.9 -99.99 -9.99
2019/12/08 12:24 CST   -0.06   0.46   10  116   12  65.5  64.4 1017.7 16.2  1.012 -99.9 -99.99 -9.99
2019/12/08 12:30 CST   -0.05   0.50   10  132   12  65.8  64.4 1017.5 16.2  1.012 -99.9 -99.99 -9.99
2019/12/08 12:36 CST   -0.04   0.58   10  134   13  65.8  64.4 1017.5 16.2  1.012 -99.9 -99.99 -9.99
2019/12/08 12:42 CST   -0.04   0.44    9  132   13  66.2  64.4 1017.3 16.2  1.012 -99.9 -99.99 -9.99
2019/12/08 12:48 CST   -0.03   0.64   10  129   13  66.2  64.6 1017.2 16.2  1.012 -99.9 -99.99 -9.99
2019/12/08 12:54 CST   -0.02   0.37   10  127   13  66.6  64.6 1017.2 16.2  1.012 -99.9 -99.99 -9.99
2019/12/08 13:00 CST   -0.01   0.54   10  123   14  66.6  64.6 1017.1 16.2  1.012 -99.9 -99.99 -9.99
2019/12/08 13:06 CST    0.00   0.61    9  130   14  66.4  64.4 1016.9 16.3  1.012 -99.9 -99.99 -9.99
2019/12/08 13:12 CST    0.01   0.57   10  132   14  66.9  64.6 1016.7 16.2  1.012 -99.9 -99.99 -9.99
2019/12/08 13:18 CST    0.02   0.64   11  128   14  66.7  64.6 1016.5 16.3  1.012 -99.9 -99.99 -9.99
2019/12/08 13:24 CST    0.03   0.65   10  125   13  66.7  64.6 1016.4 16.3  1.012 -99.9 -99.99 -9.99
2019/12/08 13:30 CST    0.05   0.56   11  129   13  67.3  64.4 1016.2 16.3  1.012 -99.9 -99.99 -9.99
2019/12/08 13:36 CST    0.06   0.75   12  132   15  67.1  64.4 1016.1 16.4  1.012 -99.9 -99.99 -9.99
2019/12/08 13:42 CST    0.07   0.71   11  131   14  66.9  64.4 1016.2 16.4  1.012 -99.9 -99.99 -9.99
2019/12/08 13:48 CST    0.09   0.77   12  130   15  66.9  64.4 1015.9 16.4  1.012 -99.9 -99.99 -9.99
2019/12/08 13:54 CST    0.10   0.77   12  132   15  66.9  64.4 1015.6 16.4  1.012 -99.9 -99.99 -9.99
2019/12/08 14:00 CST    0.12   0.82   12  135   15  67.5  64.4 1015.6 16.5  1.012 -99.9 -99.99 -9.99
2019/12/08 14:06 CST    0.13   0.85   12  131   14  67.1  64.4 1015.6 16.5  1.012 -99.9 -99.99 -9.99
2019/12/08 14:12 CST    0.15   0.78   10  133   14  67.5  64.4 1015.7 16.5  1.012 -99.9 -99.99 -9.99
2019/12/08 14:18 CST    0.16   0.80   11  132   13  67.3  64.4 1015.6 16.7  1.012 -99.9 -99.99 -9.99
2019/12/08 14:24 CST    0.18   0.86   12  133   14  67.1  64.4 1015.5 16.7  1.012 -99.9 -99.99 -9.99
2019/12/08 14:30 CST    0.20   0.82   12  134   15  67.1  64.4 1015.3 16.7  1.012 -99.9 -99.99 -9.99
2019/12/08 14:36 CST    0.21   0.99   12  131   15  67.1  64.4 1015.2 16.7  1.012 -99.9 -99.99 -9.99
2019/12/08 14:42 CST    0.23   0.98   12  129   17  66.9  64.6 1015.1 16.7  1.012 -99.9 -99.99 -9.99
2019/12/08 14:48 CST    0.25   0.91   12  131   16  67.1  64.4 1015.0 16.7  1.012 -99.9 -99.99 -9.99
2019/12/08 14:54 CST    0.27   0.92   11  132   15  66.9  64.6 1015.0 16.7  1.012 -99.9 -99.99 -9.99
2019/12/08 15:00 CST    0.29   1.00   12  131   16  66.9  64.6 1014.9 16.7  1.012 -99.9 -99.99 -9.99
2019/12/08 15:06 CST    0.31   1.02   12  130   16  67.1  64.6 1014.9 16.7  1.012 -99.9 -99.99 -9.99
2019/12/08 15:12 CST    0.33   1.04   13  128   15  67.1  64.4 1014.8 16.8  1.012 -99.9 -99.99 -9.99
2019/12/08 15:18 CST    0.35   1.06   14  129   16  67.1  64.4 1014.6 16.8  1.012 -99.9 -99.99 -9.99
2019/12/08 15:24 CST    0.37   1.09   13  130   17  67.5  64.4 1014.6 16.9  1.012 -99.9 -99.99 -9.99
2019/12/08 15:30 CST    0.39   1.24   13  129   16  67.6  64.4 1014.6 16.9  1.012 -99.9 -99.99 -9.99
2019/12/08 15:36 CST    0.41   1.15   14  128   17  67.5  64.4 1014.4 16.9  1.012 -99.9 -99.99 -9.99
2019/12/08 15:42 CST    0.43   1.16   12  132   15  67.5  64.4 1014.6 16.9  1.012 -99.9 -99.99 -9.99
2019/12/08 15:48 CST    0.45   1.17   12  132   15  67.5  64.4 1014.6 16.9  1.012 -99.9 -99.99 -9.99
2019/12/08 15:54 CST    0.47   1.29   12  132   15  67.3  64.4 1014.6 17.0  1.012 -99.9 -99.99 -9.99
2019/12/08 16:00 CST    0.49   1.10   12  135   14  67.3  64.4 1014.6 17.0  1.012 -99.9 -99.99 -9.99
2019/12/08 16:06 CST    0.50   1.26   10  135   13  67.3  64.4 1014.7 17.0  1.012 -99.9 -99.99 -9.99
2019/12/08 16:12 CST    0.52   1.16    9  137   11  67.1  64.4 1014.6 17.0  1.012 -99.9 -99.99 -9.99
2019/12/08 16:18 CST    0.54   1.32    9  136   12  66.9  64.4 1014.5 17.0  1.012 -99.9 -99.99 -9.99
2019/12/08 16:24 CST    0.56   1.32    9  136   11  66.9  64.4 1014.5 17.0  1.012 -99.9 -99.99 -9.99
2019/12/08 16:30 CST    0.58   1.25    9  134   12  66.7  64.4 1014.6 17.1  1.012 -99.9 -99.99 -9.99
2019/12/08 16:36 CST    0.60   1.28    9  138   12  66.6  64.4 1014.6 17.1  1.013 -99.9 -99.99 -9.99
2019/12/08 16:42 CST    0.62   1.39    9  139   12  66.6  64.4 1014.6 17.1  1.013 -99.9 -99.99 -9.99
2019/12/08 16:48 CST    0.63   1.34    8  141   10  66.4  64.4 1014.7 17.1  1.013 -99.9 -99.99 -9.99
2019/12/08 16:54 CST    0.65   1.41    8  140   10  66.2  64.4 1014.6 17.1  1.013 -99.9 -99.99 -9.99
2019/12/08 17:00 CST    0.67   1.31    9  136   10  66.0  64.4 1014.5 17.1  1.013 -99.9 -99.99 -9.99
2019/12/08 17:06 CST    0.68   1.38    9  140   11  66.0  64.4 1014.3 17.1  1.013 -99.9 -99.99 -9.99
2019/12/08 17:12 CST    0.70   1.50    7  141   11  66.0  64.4 1014.4 17.2  1.013 -99.9 -99.99 -9.99
2019/12/08 17:18 CST    0.72   1.45    7  138   10  66.0  64.4 1014.4 17.2  1.013 -99.9 -99.99 -9.99
2019/12/08 17:24 CST    0.73   1.41    6  137    8  65.7  64.4 1014.3 17.2  1.013 -99.9 -99.99 -9.99
2019/12/08 17:30 CST    0.75   1.45    7  140    9  65.5  64.4 1014.3 17.2  1.013 -99.9 -99.99 -9.99
2019/12/08 17:36 CST    0.76   1.43    7  141    8  65.5  64.6 1014.3 17.2  1.013 -99.9 -99.99 -9.99
2019/12/08 17:42 CST    0.77   1.49    6  142    8  65.5  64.6 1014.3 17.2  1.013 -99.9 -99.99 -9.99
2019/12/08 17:48 CST    0.79   1.49    7  143    8  65.3  64.6 1014.2 17.2  1.013 -99.9 -99.99 -9.99
2019/12/08 17:54 CST    0.80   1.45    6  144    9  65.3  64.6 1014.2 17.2  1.013 -99.9 -99.99 -9.99
2019/12/08 18:00 CST    0.81   1.52    6  144    9  65.3  64.6 1014.2 17.2  1.013 -99.9 -99.99 -9.99
2019/12/08 18:06 CST    0.83   1.48    6  143    8  65.3  64.6 1014.2 17.2  1.013 -99.9 -99.99 -9.99
2019/12/08 18:12 CST    0.84   1.49    6  145    8  65.1  64.4 1014.2 17.3  1.013 -99.9 -99.99 -9.99
2019/12/08 18:18 CST    0.85   1.55    5  146    8  64.9  64.4 1014.3 17.2  1.013 -99.9 -99.99 -9.99
2019/12/08 18:24 CST    0.86   1.60    5  148    7  64.9  64.4 1014.1 17.2  1.013 -99.9 -99.99 -9.99
2019/12/08 18:30 CST    0.87   1.54    5  145    7  64.9  64.4 1014.0 17.2  1.013 -99.9 -99.99 -9.99
2019/12/08 18:36 CST    0.88   1.52    7  143    9  64.9  64.4 1013.9 17.2  1.013 -99.9 -99.99 -9.99
2019/12/08 18:42 CST    0.88   1.50    6  145    9  65.1  64.4 1013.9 17.2  1.013 -99.9 -99.99 -9.99
2019/12/08 18:48 CST    0.89   1.54    5  149    8  65.1  64.4 1014.0 17.2  1.013 -99.9 -99.99 -9.99
2019/12/08 18:54 CST    0.90   1.59    6  147    8  64.9  64.4 1013.8 17.2  1.013 -99.9 -99.99 -9.99
2019/12/08 19:00 CST    0.91   1.60    6  148    9  65.1  64.4 1013.8 17.2  1.013 -99.9 -99.99 -9.99
2019/12/08 19:06 CST    0.91   1.52    7  151    9  65.1  64.4 1013.9 17.2  1.013 -99.9 -99.99 -9.99
2019/12/08 19:12 CST    0.92   1.54    7  155    9  65.1  64.4 1013.7 17.2  1.013 -99.9 -99.99 -9.99
2019/12/08 19:18 CST    0.92   1.59    7  156   10  65.1  64.4 1013.6 17.2  1.013 -99.9 -99.99 -9.99
2019/12/08 19:24 CST    0.92   1.62    8  152   10  65.3  64.4 1013.5 17.3  1.013 -99.9 -99.99 -9.99
2019/12/08 19:30 CST    0.93   1.47    7  156   10  65.3  64.4 1013.6 17.3  1.013 -99.9 -99.99 -9.99
2019/12/08 19:36 CST    0.93   1.58    6  161    9  65.3  64.4 1013.8 17.3  1.013 -99.9 -99.99 -9.99
2019/12/08 19:42 CST    0.93   1.59    5  166    8  65.3  64.6 1013.8 17.2  1.013 -99.9 -99.99 -9.99
2019/12/08 19:48 CST    0.93   1.65    6  161    8  65.1  64.6 1013.8 17.2  1.013 -99.9 -99.99 -9.99
2019/12/08 19:54 CST    0.93   1.63    6  165    8  65.1  64.6 1013.7 17.2  1.013 -99.9 -99.99 -9.99
2019/12/08 20:00 CST    0.93   1.63    5  169    7  65.1  64.6 1013.7 17.2  1.013 -99.9 -99.99 -9.99
2019/12/08 20:06 CST    0.93   1.70    4  171    6  64.9  64.6 1013.8 17.2  1.013 -99.9 -99.99 -9.99
2019/12/08 20:12 CST    0.93   1.61    5  166    7  64.9  64.6 1013.6 17.2  1.013 -99.9 -99.99 -9.99
2019/12/08 20:18 CST    0.93   1.59    4  166    6  64.9  64.6 1013.6 17.2  1.013 -99.9 -99.99 -9.99
2019/12/08 20:24 CST    0.93   1.51    4  161    7  64.9  64.6 1013.5 17.2  1.013 -99.9 -99.99 -9.99
2019/12/08 20:30 CST    0.93   1.71    5  162    7  64.9  64.6 1013.4 17.2  1.013 -99.9 -99.99 -9.99
2019/12/08 20:36 CST    0.93   1.58    6  158    8  64.9  64.6 1013.3 17.2  1.013 -99.9 -99.99 -9.99
2019/12/08 20:42 CST    0.93   1.55    6  165    9  64.9  64.6 1013.2 17.2  1.013 -99.9 -99.99 -9.99
2019/12/08 20:48 CST    0.93   1.59    5  171    8  64.9  64.6 1013.4 17.2  1.013 -99.9 -99.99 -9.99
2019/12/08 20:54 CST    0.93   1.65    4  173    6  64.8  64.6 1013.4 17.2  1.013 -99.9 -99.99 -9.99
2019/12/08 21:00 CST    0.93   1.66    3  181    5  64.8  64.6 1013.5 17.2  1.013 -99.9 -99.99 -9.99
2019/12/08 21:06 CST    0.93   1.59    3  181    5  64.8  64.6 1013.5 17.3  1.013 -99.9 -99.99 -9.99
2019/12/08 21:12 CST    0.93   1.55    2  175    5  64.8  64.6 1013.4 17.3  1.013 -99.9 -99.99 -9.99
2019/12/08 21:18 CST    0.93   1.59    2  179    4  64.8  64.6 1013.4 17.3  1.013 -99.9 -99.99 -9.99
2019/12/08 21:24 CST    0.93   1.56    2  177    4  64.6  64.6 1013.3 17.3  1.013 -99.9 -99.99 -9.99
2019/12/08 21:30 CST    0.93   1.55    2  192    4  64.8  64.6 1013.4 17.3  1.013 -99.9 -99.99 -9.99
2019/12/08 21:36 CST    0.93   1.53    3  183    4  64.8  64.6 1013.3 17.3  1.013 -99.9 -99.99 -9.99
2019/12/08 21:42 CST    0.93   1.57    3  172    4  64.8  64.6 1013.3 17.3  1.013 -99.9 -99.99 -9.99
2019/12/08 21:48 CST    0.92   1.59    4  169    5  64.8  64.6 1013.2 17.3  1.013 -99.9 -99.99 -9.99
2019/12/08 21:54 CST    0.92   1.52    3  175    5  64.8  64.6 1013.2 17.3  1.013 -99.9 -99.99 -9.99
2019/12/08 22:00 CST    0.92   1.53    3  170    5  64.8  64.6 1013.2 17.2  1.013 -99.9 -99.99 -9.99
2019/12/08 22:06 CST    0.92   1.53    2  172    4  64.8  64.6 1013.2 17.3  1.013 -99.9 -99.99 -9.99
2019/12/08 22:12 CST    0.92   1.54    3  171    3  64.8  64.6 1013.2 17.3  1.013 -99.9 -99.99 -9.99
2019/12/08 22:18 CST    0.91   1.56    3  167    4  64.8  64.6 1013.1 17.3  1.013 -99.9 -99.99 -9.99
2019/12/08 22:24 CST    0.91   1.52    3  158    4  64.8  64.6 1013.1 17.3  1.013 -99.9 -99.99 -9.99
2019/12/08 22:30 CST    0.91   1.49    2  159    4  64.8  64.6 1013.2 17.3  1.013 -99.9 -99.99 -9.99
2019/12/08 22:36 CST    0.91   1.51    2  145    3  64.6  64.8 1013.3 17.2  1.013 -99.9 -99.99 -9.99
2019/12/08 22:42 CST    0.90   1.47    2  168    2  64.6  64.8 1013.3 17.2  1.013 -99.9 -99.99 -9.99
2019/12/08 22:48 CST    0.90   1.51    1  166    2  64.6  64.8 1013.4 17.2  1.013 -99.9 -99.99 -9.99
2019/12/08 22:54 CST    0.90   1.47    2  181    3  64.8  64.8 1013.5 17.2  1.013 -99.9 -99.99 -9.99
2019/12/08 23:00 CST    0.89   1.50    1  186    3  64.8  64.8 1013.5 17.2  1.013 -99.9 -99.99 -9.99
2019/12/08 23:06 CST    0.89   1.47    2  191    2  64.9  64.8 1013.5 17.2  1.013 -99.9 -99.99 -9.99
2019/12/08 23:12 CST    0.88   1.45    2  188    4  65.1  64.8 1013.5 17.1  1.013 -99.9 -99.99 -9.99
2019/12/08 23:18 CST    0.88   1.44    1  206    4  65.3  64.8 1013.6 17.1  1.013 -99.9 -99.99 -9.99
2019/12/08 23:24 CST    0.88   1.50    3  178    4  65.7  64.8 1013.6 17.1  1.012 -99.9 -99.99 -9.99
2019/12/08 23:30 CST    0.87   1.46    3  169    5  65.7  64.8 1013.4 17.1  1.012 -99.9 -99.99 -9.99
2019/12/08 23:36 CST    0.87   1.43    3  173    4  65.5  64.8 1013.3 17.1  1.012 -99.9 -99.99 -9.99
2019/12/08 23:42 CST    0.87   1.42    4  165    6  65.7  64.8 1013.1 17.1  1.012 -99.9 -99.99 -9.99
2019/12/08 23:48 CST    0.87   1.45    6  158    8  65.7  64.8 1012.7 17.1  1.012 -99.9 -99.99 -9.99
2019/12/08 23:54 CST    0.86   1.46    6  163    9  65.8  64.8 1012.7 17.1  1.012 -99.9 -99.99 -9.99
2019/12/09 00:00 CST    0.86   1.45    6  159    8  65.7  64.8 1012.7 17.1  1.012 -99.9 -99.99 -9.99
2019/12/09 00:06 CST    0.86   1.40    5  156    8  65.5  64.8 1012.6 17.1  1.012 -99.9 -99.99 -9.99
2019/12/09 00:12 CST    0.86   1.42    6  165    8  65.5  64.8 1012.5 17.0  1.012 -99.9 -99.99 -9.99
2019/12/09 00:18 CST    0.86   1.44    4  167    8  65.5  64.8 1012.5 17.0  1.012 -99.9 -99.99 -9.99
2019/12/09 00:24 CST    0.86   1.45    5  171    7  65.3  64.8 1012.5 17.0  1.012 -99.9 -99.99 -9.99
2019/12/09 00:30 CST    0.86   1.43    5  172    7  65.3  64.8 1012.5 17.0  1.012 -99.9 -99.99 -9.99
2019/12/09 00:36 CST    0.86   1.51    4  180    6  65.3  64.8 1012.7 17.0  1.012 -99.9 -99.99 -9.99
2019/12/09 00:42 CST    0.86   1.26    3  175    5  65.5  64.8 1012.7 17.0  1.012 -99.9 -99.99 -9.99
2019/12/09 00:48 CST    0.86   1.53    3  176    5  65.7  64.8 1012.6 17.0  1.012 -99.9 -99.99 -9.99
2019/12/09 00:54 CST    0.86   1.31    4  181    8  66.2  64.8 1012.5 17.0  1.012 -99.9 -99.99 -9.99
2019/12/09 01:00 CST    0.86   1.45    4  181    6  66.7  64.8 1012.5 17.0  1.012 -99.9 -99.99 -9.99
2019/12/09 01:06 CST    0.86   1.49    4  185    7  67.1  64.8 1012.4 17.0  1.012 -99.9 -99.99 -9.99
2019/12/09 01:12 CST    0.87   1.44    5  189    7  67.3  64.8 1012.4 17.0  1.012 -99.9 -99.99 -9.99
2019/12/09 01:18 CST    0.87   1.36    4  192    7  67.5  64.8 1012.3 16.9  1.012 -99.9 -99.99 -9.99
2019/12/09 01:24 CST    0.87   1.43    5  186    7  67.5  64.8 1012.3 16.9  1.012 -99.9 -99.99 -9.99
2019/12/09 01:30 CST    0.87   1.42    4  182    8  67.5  64.8 1012.3 16.9  1.012 -99.9 -99.99 -9.99
2019/12/09 01:36 CST    0.87   1.41    5  180    7  67.1  64.8 1012.1 16.9  1.012 -99.9 -99.99 -9.99
2019/12/09 01:42 CST    0.87   1.35    4  178    6  66.9  64.8 1012.0 16.9  1.012 -99.9 -99.99 -9.99
2019/12/09 01:48 CST    0.87   1.36    4  171    7  66.7  64.8 1012.0 16.9  1.012 -99.9 -99.99 -9.99
2019/12/09 01:54 CST    0.88   1.33    4  168    7  66.4  64.8 1012.0 16.9  1.012 -99.9 -99.99 -9.99
2019/12/09 02:00 CST    0.88   1.37    5  167    7  66.2  64.8 1011.9 16.9  1.012 -99.9 -99.99 -9.99
2019/12/09 02:06 CST    0.88   1.36    4  170    7  66.0  64.8 1011.9 16.9  1.012 -99.9 -99.99 -9.99
2019/12/09 02:12 CST    0.88   1.36    3  176    6  65.8  64.8 1012.0 16.9  1.012 -99.9 -99.99 -9.99
2019/12/09 02:18 CST    0.88   1.38    3  175    6  65.8  64.8 1011.9 16.9  1.012 -99.9 -99.99 -9.99
2019/12/09 02:24 CST    0.88   1.35    3  166    5  65.7  64.8 1011.8 16.9  1.012 -99.9 -99.99 -9.99
2019/12/09 02:30 CST    0.88   1.32    3  178    5  65.8  64.8 1011.7 16.9  1.012 -99.9 -99.99 -9.99
2019/12/09 02:36 CST    0.88   1.36    3  167    4  65.8  64.8 1011.6 16.9  1.012 -99.9 -99.99 -9.99
2019/12/09 02:42 CST    0.88   1.42    3  177    4  66.0  64.8 1011.6 16.9  1.012 -99.9 -99.99 -9.99
2019/12/09 02:48 CST    0.88   1.27    4  173    5  66.0  64.8 1011.5 16.9  1.012 -99.9 -99.99 -9.99
2019/12/09 02:54 CST    0.88   1.45    3  182    5  66.2  64.8 1011.4 17.0  1.012 -99.9 -99.99 -9.99
2019/12/09 03:00 CST    0.87   1.32    4  171    5  66.2  64.8 1011.3 17.0  1.012 -99.9 -99.99 -9.99
2019/12/09 03:06 CST    0.87   1.36    3  177    5  66.2  64.8 1011.3 17.0  1.012 -99.9 -99.99 -9.99
2019/12/09 03:12 CST    0.87   1.41    2  166    4  66.0  64.8 1011.4 17.0  1.012 -99.9 -99.99 -9.99
2019/12/09 03:18 CST    0.87   1.44    2  175    4  66.0  64.8 1011.4 17.0  1.012 -99.9 -99.99 -9.99
2019/12/09 03:24 CST    0.87   1.37    2  172    4  66.0  64.8 1011.3 17.0  1.012 -99.9 -99.99 -9.99
2019/12/09 03:30 CST    0.87   1.38    3  165    4  66.0  64.8 1011.2 17.0  1.012 -99.9 -99.99 -9.99
2019/12/09 03:36 CST    0.86   1.35    3  176    5  66.4  64.8 1011.2 17.0  1.012 -99.9 -99.99 -9.99
2019/12/09 03:42 CST    0.86   1.38    4  182    7  67.1  64.8 1011.1 17.0  1.012 -99.9 -99.99 -9.99
2019/12/09 03:48 CST    0.86   1.37    5  180    7  67.3  64.8 1011.1 17.0  1.012 -99.9 -99.99 -9.99
2019/12/09 03:54 CST    0.86   1.39    4  177    7  67.3  64.8 1011.1 16.9  1.012 -99.9 -99.99 -9.99
2019/12/09 04:00 CST    0.85   1.30    5  178    7  67.1  64.8 1011.1 16.9  1.012 -99.9 -99.99 -9.99
2019/12/09 04:06 CST    0.85   1.35    4  181    7  66.9  64.8 1011.1 16.9  1.012 -99.9 -99.99 -9.99
2019/12/09 04:12 CST    0.85   1.34    4  185    6  66.7  64.8 1011.1 16.9  1.012 -99.9 -99.99 -9.99
2019/12/09 04:18 CST    0.84   1.42    3  187    4  66.7  64.8 1011.0 16.9  1.012 -99.9 -99.99 -9.99
2019/12/09 04:24 CST    0.84   1.38    3  184    5  66.9  64.8 1011.1 16.9  1.012 -99.9 -99.99 -9.99
2019/12/09 04:30 CST    0.83   1.36    2  213    5  67.3  64.8 1011.1 16.9  1.012 -99.9 -99.99 -9.99
2019/12/09 04:36 CST    0.83   1.30    3  195    5  67.5  64.8 1011.1 16.9  1.012 -99.9 -99.99 -9.99
2019/12/09 04:42 CST    0.82   1.31    3  184    5  67.3  64.8 1011.1 16.9  1.012 -99.9 -99.99 -9.99
2019/12/09 04:48 CST    0.81   1.26    4  185    7  67.3  64.8 1011.1 16.9  1.012 -99.9 -99.99 -9.99
2019/12/09 04:54 CST    0.81   1.35    3  176    6  67.1  64.8 1011.0 16.9  1.012 -99.9 -99.99 -9.99
2019/12/09 05:00 CST    0.80   1.29    3  182    5  67.1  64.8 1011.0 16.9  1.012 -99.9 -99.99 -9.99
2019/12/09 05:06 CST    0.79   1.31    4  185    6  67.3  64.8 1011.0 16.9  1.012 -99.9 -99.99 -9.99
2019/12/09 05:12 CST    0.78   1.22    4  183    6  67.3  64.8 1011.0 16.9  1.012 -99.9 -99.99 -9.99
2019/12/09 05:18 CST    0.77   1.28    3  175    5  67.1  64.8 1011.0 16.9  1.012 -99.9 -99.99 -9.99
2019/12/09 05:24 CST    0.76   1.26    3  171    5  66.9  64.8 1011.0 16.9  1.012 -99.9 -99.99 -9.99
2019/12/09 05:30 CST    0.75   1.22    3  167    5  66.6  64.8 1011.0 16.9  1.012 -99.9 -99.99 -9.99
2019/12/09 05:36 CST    0.74   1.20    3  170    4  66.6  64.8 1011.0 16.9  1.012 -99.9 -99.99 -9.99
2019/12/09 05:42 CST    0.73   1.21    3  178    4  66.4  64.8 1011.1 16.9  1.012 -99.9 -99.99 -9.99
2019/12/09 05:48 CST    0.72   1.19    4  183    5  66.9  64.8 1011.2 16.9  1.012 -99.9 -99.99 -9.99
2019/12/09 05:54 CST    0.71   1.20    3  185    6  66.9  64.8 1011.2 16.9  1.012 -99.9 -99.99 -9.99
2019/12/09 06:00 CST    0.69   1.16    3  183    5  66.7  64.8 1011.1 16.9  1.012 -99.9 -99.99 -9.99
2019/12/09 06:06 CST    0.68   1.16    3  181    5  66.9  64.8 1011.1 16.9  1.012 -99.9 -99.99 -9.99
2019/12/09 06:12 CST    0.67   1.14    3  187    5  67.1  64.8 1011.2 16.8  1.012 -99.9 -99.99 -9.99
2019/12/09 06:18 CST    0.65   1.12    4  190    5  67.3  64.8 1011.4 16.8  1.012 -99.9 -99.99 -9.99
2019/12/09 06:24 CST    0.64   1.12    3  192    4  67.5  64.8 1011.5 16.7  1.012 -99.9 -99.99 -9.99
2019/12/09 06:30 CST    0.62   1.09    2  184    5  67.5  64.8 1011.5 16.7  1.012 -99.9 -99.99 -9.99
2019/12/09 06:36 CST    0.61   1.07    2  196    4  67.5  64.8 1011.6 16.7  1.012 -99.9 -99.99 -9.99
2019/12/09 06:42 CST    0.59   1.05    3  181    5  67.3  64.8 1011.6 16.7  1.012 -99.9 -99.99 -9.99
2019/12/09 06:48 CST    0.57   1.05    3  171    4  67.1  64.8 1011.6 16.6  1.012 -99.9 -99.99 -9.99
2019/12/09 06:54 CST    0.56   1.05    3  176    4  66.9  64.8 1011.6 16.6  1.012 -99.9 -99.99 -9.99
2019/12/09 07:00 CST    0.54   1.08    2  177    3  66.9  64.8 1011.7 16.6  1.012 -99.9 -99.99 -9.99
2019/12/09 07:06 CST    0.52   0.97    3  185    4  67.1  64.8 1011.7 16.6  1.012 -99.9 -99.99 -9.99
2019/12/09 07:12 CST    0.50   0.96    1  190    3  67.5  64.8 1011.8 16.6  1.012 -99.9 -99.99 -9.99
2019/12/09 07:18 CST    0.48   0.89    3  185    4  67.6  64.8 1011.9 16.6  1.012 -99.9 -99.99 -9.99
2019/12/09 07:24 CST    0.47   0.95    3  170    4  67.3  64.8 1011.8 16.6  1.012 -99.9 -99.99 -9.99
2019/12/09 07:30 CST    0.45   0.92    3  183    4  67.3  64.8 1011.9 16.5  1.012 -99.9 -99.99 -9.99
2019/12/09 07:36 CST    0.43   0.95    3  181    5  67.5  64.8 1012.0 16.5  1.012 -99.9 -99.99 -9.99
2019/12/09 07:42 CST    0.41   0.83    3  179    5  67.5  64.8 1012.0 16.5  1.012 -99.9 -99.99 -9.99
2019/12/09 07:48 CST    0.38   0.91    4  175    5  67.3  64.8 1012.0 16.4  1.012 -99.9 -99.99 -9.99
2019/12/09 07:54 CST    0.36   0.89    2  175    4  67.1  64.8 1012.1 16.4  1.012 -99.9 -99.99 -9.99
2019/12/09 08:00 CST    0.34   0.84    3  179    5  67.3  64.8 1012.1 16.4  1.012 -99.9 -99.99 -9.99
2019/12/09 08:06 CST    0.32   0.86    4  177    5  67.1  64.8 1012.2 16.3  1.012 -99.9 -99.99 -9.99
2019/12/09 08:12 CST    0.30   0.87    4  176    5  67.3  64.6 1012.2 16.4  1.012 -99.9 -99.99 -9.99
2019/12/09 08:18 CST    0.28   0.82    4  171    5  67.1  64.6 1012.3 16.3  1.012 -99.9 -99.99 -9.99
2019/12/09 08:24 CST    0.26   0.75    4  165    5  67.3  64.6 1012.3 16.3  1.012 -99.9 -99.99 -9.99
2019/12/09 08:30 CST    0.24   0.74    3  172    5  67.5  64.6 1012.3 16.3  1.012 -99.9 -99.99 -9.99
2019/12/09 08:36 CST    0.22   0.75    4  171    6  67.8  64.6 1012.3 16.3  1.012 -99.9 -99.99 -9.99
2019/12/09 08:42 CST    0.20   0.75    4  178    5  68.0  64.6 1012.3 16.3  1.012 -99.9 -99.99 -9.99
2019/12/09 08:48 CST    0.18   0.49    3  171    5  68.0  64.6 1012.4 16.3  1.012 -99.9 -99.99 -9.99
2019/12/09 08:54 CST    0.16   0.65    3  174    6  68.4  64.6 1012.4 16.3  1.012 -99.9 -99.99 -9.99
2019/12/09 09:00 CST    0.14   0.57    4  169    6  68.5  64.8 1012.4 16.3  1.012 -99.9 -99.99 -9.99
2019/12/09 09:06 CST    0.12   0.63    4  167    6  68.7  64.8 1012.4 16.2  1.012 -99.9 -99.99 -9.99
2019/12/09 09:12 CST    0.10   0.67    4  173    5  68.9  64.8 1012.5 16.2  1.012 -99.9 -99.99 -9.99
2019/12/09 09:18 CST    0.08   0.56    4  164    6  68.9  64.8 1012.4 16.2  1.012 -99.9 -99.99 -9.99
2019/12/09 09:24 CST    0.06   0.58    5  164    6  68.7  64.8 1012.5 16.1  1.012 -99.9 -99.99 -9.99
2019/12/09 09:30 CST    0.05   0.53    3  181    6  68.9  64.8 1012.6 16.1  1.012 -99.9 -99.99 -9.99
2019/12/09 09:36 CST    0.03   0.59    3  170    5  69.3  64.8 1012.6 16.1  1.012 -99.9 -99.99 -9.99
2019/12/09 09:42 CST    0.01   0.52    4  166    7  69.1  64.8 1012.6 16.1  1.012 -99.9 -99.99 -9.99
2019/12/09 09:48 CST   -0.00   0.55    4  169    5  69.4  64.8 1012.6 16.1  1.012 -99.9 -99.99 -9.99
2019/12/09 09:54 CST   -0.02   0.48    3  167    5  69.8  64.8 1012.6 16.1  1.012 -99.9 -99.99 -9.99
2019/12/09 10:00 CST   -0.04   0.51    3  173    4  70.3  64.8 1012.6 16.1  1.012 -99.9 -99.99 -9.99
2019/12/09 10:06 CST   -0.05   0.47    3  166    5  70.9  64.8 1012.5 16.1  1.012 -99.9 -99.99 -9.99
2019/12/09 10:12 CST   -0.06   0.40    3  178    4  71.2  64.8 1012.6 16.1  1.012 -99.9 -99.99 -9.99
2019/12/09 10:18 CST   -0.08   0.50    3  177    7  72.1  64.8 1012.6 16.1  1.012 -99.9 -99.99 -9.99
2019/12/09 10:24 CST   -0.09   0.50    6  193    9  73.0  64.8 1012.5 16.1  1.012 -99.9 -99.99 -9.99
2019/12/09 10:30 CST   -0.10   0.51    6  202    9  74.3  64.8 1012.4 16.1  1.012 -99.9 -99.99 -9.99
2019/12/09 10:36 CST   -0.12   0.42    8  199   12  75.0  64.8 1012.4 16.1  1.012 -99.9 -99.99 -9.99
2019/12/09 10:42 CST   -0.13   0.40    9  191   14  75.9  64.8 1012.3 16.1  1.012 -99.9 -99.99 -9.99
2019/12/09 10:48 CST   -0.14   0.42    7  188   12  75.9  64.8 1012.2 16.1  1.012 -99.9 -99.99 -9.99
2019/12/09 10:54 CST   -0.15   0.50    7  216   10  76.3  64.8 1012.1 16.0  1.012 -99.9 -99.99 -9.99
2019/12/09 11:00 CST   -0.16   0.41    7  180   11  76.6  64.8 1012.1 16.0  1.012 -99.9 -99.99 -9.99
2019/12/09 11:06 CST   -0.17   0.43    7  189   12  77.2  64.8 1012.1 16.0  1.012 -99.9 -99.99 -9.99
2019/12/09 11:12 CST   -0.18   0.44    8  192   13  77.4  64.8 1012.0 16.0  1.012 -99.9 -99.99 -9.99
2019/12/09 11:18 CST   -0.19   0.43   11  220   17  77.9  64.9 1011.8 16.0  1.012 -99.9 -99.99 -9.99
2019/12/09 11:24 CST   -0.20   0.39    7  209   19  78.1  64.9 1011.7 16.0  1.012 -99.9 -99.99 -9.99
2019/12/09 11:30 CST   -0.21   0.37   10  200   15  77.9  64.9 1011.6 16.0  1.012 -99.9 -99.99 -9.99
2019/12/09 11:36 CST   -0.22   0.35   11  211   16  78.3  64.9 1011.5 16.0  1.012 -99.9 -99.99 -9.99
2019/12/09 11:42 CST   -0.22   0.45    8  203   20  77.9  64.9 1011.4 16.1  1.012 -99.9 -99.99 -9.99
2019/12/09 11:48 CST   -0.23   0.43    7  205   13  77.5  64.9 1011.4 16.1  1.012 -99.9 -99.99 -9.99
2019/12/09 11:54 CST   -0.23   0.40    9  210   14  77.7  64.9 1011.2 16.1  1.012 -99.9 -99.99 -9.99
2019/12/09 12:00 CST   -0.24   0.34    5  210   11  78.1  64.9 1011.1 16.1  1.012 -99.9 -99.99 -9.99
2019/12/09 12:06 CST   -0.24   0.27    8  220   13  78.6  64.9 1011.0 16.1  1.012 -99.9 -99.99 -9.99
2019/12/09 12:12 CST   -0.24   0.36    6  212   12  78.6  65.1 1010.9 16.0  1.012 -99.9 -99.99 -9.99
2019/12/09 12:18 CST   -0.24   0.35    8  210   14  78.8  65.1 1010.7 16.0  1.012 -99.9 -99.99 -9.99
2019/12/09 12:24 CST   -0.24   0.43   11  212   18  79.2  65.1 1010.6 16.0  1.012 -99.9 -99.99 -9.99
2019/12/09 12:30 CST   -0.24   0.39    6  218   13  79.3  65.1 1010.5 15.9  1.012 -99.9 -99.99 -9.99
2019/12/09 12:36 CST   -0.23   0.38    8  219   14  79.7  65.1 1010.4 15.9  1.012 -99.9 -99.99 -9.99
2019/12/09 12:42 CST   -0.23   0.34    6  222   12  79.5  65.1 1010.3 15.9  1.012 -99.9 -99.99 -9.99
2019/12/09 12:48 CST   -0.22   0.33    7  235   10  79.5  65.1 1010.2 15.9  1.012 -99.9 -99.99 -9.99
2019/12/09 12:54 CST   -0.21   0.32    6  210   14  80.2  65.1 1010.1 15.9  1.011 -99.9 -99.99 -9.99
2019/12/09 13:00 CST   -0.21   0.36    8  212   14  79.0  65.1 1010.1 15.8  1.011 -99.9 -99.99 -9.99
2019/12/09 13:06 CST   -0.20   0.47    8  204   15  79.5  65.1 1010.0 15.9  1.011 -99.9 -99.99 -9.99
2019/12/09 13:12 CST   -0.19   0.46    7  206   13  80.1  65.1 1009.9 15.9  1.011 -99.9 -99.99 -9.99
2019/12/09 13:18 CST   -0.18   0.43    8  199   13  80.1  65.1 1009.8 15.9  1.011 -99.9 -99.99 -9.99
2019/12/09 13:24 CST   -0.16   0.42    6  206   12  80.2  65.1 1009.7 15.9  1.012 -99.9 -99.99 -9.99
2019/12/09 13:30 CST   -0.15   0.50    6  213   15  80.2  64.9 1009.7 15.2  1.011 -99.9 -99.99 -9.99
2019/12/09 13:36 CST   -0.14   0.51    9  210   14  79.5  65.1 1009.6 15.9  1.012 -99.9 -99.99 -9.99
2019/12/09 13:42 CST   -0.12   0.59    6  197   12  79.9  65.1 1009.5 15.9  1.012 -99.9 -99.99 -9.99
2019/12/09 13:48 CST   -0.11   0.52    7  207   14  79.3  65.1 1009.5 15.9  1.012 -99.9 -99.99 -9.99
2019/12/09 13:54 CST   -0.09   0.54    8  204   15  79.0  65.1 1009.5 15.9  1.012 -99.9 -99.99 -9.99
2019/12/09 14:00 CST   -0.07   0.56    6  210   13  79.3  65.1 1009.5 16.0  1.012 -99.9 -99.99 -9.99
2019/12/09 14:06 CST   -0.06   0.61    8  210   17  79.5  65.1 1009.5 16.0  1.012 -99.9 -99.99 -9.99
2019/12/09 14:12 CST   -0.04   0.68    6  203   16  79.5  65.3 1009.6 16.0  1.012 -99.9 -99.99 -9.99
2019/12/09 14:18 CST   -0.02   0.56    6  208   14  79.5  65.3 1009.5 16.0  1.012 -99.9 -99.99 -9.99
2019/12/09 14:24 CST   -0.00   0.76    8  205   16  79.3  65.3 1009.5 16.1  1.012 -99.9 -99.99 -9.99
2019/12/09 14:30 CST    0.02   0.58    9  204   14  79.7  65.3 1009.6 15.9  1.012 -99.9 -99.99 -9.99
2019/12/09 14:36 CST    0.04   0.78    8  200   16  80.1  65.3 1009.5 14.0  1.010 -99.9 -99.99 -9.99
2019/12/09 14:42 CST    0.06   0.56    7  203   13  80.1  65.3 1009.5 14.0  1.010 -99.9 -99.99 -9.99
2019/12/09 14:48 CST    0.08   0.81    7  210   14  80.2  65.5 1009.5 14.0  1.010 -99.9 -99.99 -9.99
2019/12/09 14:54 CST    0.10   0.78    9  205   15  79.7  65.5 1009.5 13.9  1.010 -99.9 -99.99 -9.99
2019/12/09 15:00 CST    0.12   0.74    7  208   15  79.9  65.5 1009.4 13.9  1.010 -99.9 -99.99 -9.99
2019/12/09 15:06 CST    0.14   0.82    7  202   14  79.9  65.5 1009.4 14.0  1.010 -99.9 -99.99 -9.99
2019/12/09 15:12 CST    0.16   0.70    6  208   12  79.5  65.7 1009.4 14.0  1.010 -99.9 -99.99 -9.99
2019/12/09 15:18 CST    0.18   0.76    4  204   12  79.5  65.5 1009.5 14.0  1.010 -99.9 -99.99 -9.99
2019/12/09 15:24 CST    0.20   0.86    8  212   13  79.7  65.5 1009.5 14.1  1.010 -99.9 -99.99 -9.99
2019/12/09 15:30 CST    0.22   0.85    8  211   15  79.3  65.7 1009.5 14.0  1.010 -99.9 -99.99 -9.99
2019/12/09 15:36 CST    0.25   0.82    6  205   13  79.2  65.7 1009.6 14.0  1.010 -99.9 -99.99 -9.99
2019/12/09 15:42 CST    0.27   0.96    4  199   11  79.0  65.7 1009.5 14.0  1.010 -99.9 -99.99 -9.99
2019/12/09 15:48 CST    0.29   0.92    9  205   16  78.3  65.7 1009.5 14.2  1.010 -99.9 -99.99 -9.99
2019/12/09 15:54 CST    0.32   0.97    8  204   15  78.3  65.7 1009.5 16.2  1.012 -99.9 -99.99 -9.99
2019/12/09 16:00 CST    0.34   0.93    7  211   13  78.3  65.7 1009.5 16.2  1.012 -99.9 -99.99 -9.99
2019/12/09 16:06 CST    0.36   1.04    6  200   11  78.3  65.7 1009.5 16.1  1.012 -99.9 -99.99 -9.99
2019/12/09 16:12 CST    0.39   1.02    8  193   11  78.4  65.7 1009.5 16.2  1.012 -99.9 -99.99 -9.99
2019/12/09 16:18 CST    0.41   1.14    6  180   11  74.3  65.5 1009.8 16.2  1.012 -99.9 -99.99 -9.99
2019/12/09 16:24 CST    0.44   1.01    8  173   12  73.8  65.7 1009.8 16.2  1.012 -99.9 -99.99 -9.99
2019/12/09 16:30 CST    0.46   1.08    7  172   10  72.7  65.7 1009.9 16.1  1.012 -99.9 -99.99 -9.99
2019/12/09 16:36 CST    0.48   1.12    7  172   10  73.2  65.7 1010.0 16.1  1.012 -99.9 -99.99 -9.99
2019/12/09 16:42 CST    0.51   1.20    8  171   12  73.6  65.7 1010.0 16.2  1.012 -99.9 -99.99 -9.99
2019/12/09 16:48 CST    0.53   1.21    8  172   11  73.4  65.7 1010.1 16.2  1.012 -99.9 -99.99 -9.99
2019/12/09 16:54 CST    0.55   1.19    7  169   11  72.7  65.7 1010.0 16.2  1.012 -99.9 -99.99 -9.99
2019/12/09 17:00 CST    0.58   1.22    7  172   11  72.7  65.7 1010.1 16.2  1.012 -99.9 -99.99 -9.99
2019/12/09 17:06 CST    0.60   1.23    7  169   10  72.5  65.7 1010.1 16.2  1.012 -99.9 -99.99 -9.99
2019/12/09 17:12 CST    0.62   1.22    6  172   11  71.6  65.7 1010.1 16.2  1.012 -99.9 -99.99 -9.99
2019/12/09 17:18 CST    0.64   1.27    5  168    8  71.2  65.3 1010.2 16.2  1.012 -99.9 -99.99 -9.99
2019/12/09 17:24 CST    0.67   1.30    8  170   10  71.8  65.3 1010.3 16.2  1.012 -99.9 -99.99 -9.99
2019/12/09 17:30 CST    0.69   1.40    8  167   10  71.6  65.5 1010.4 16.2  1.012 -99.9 -99.99 -9.99
2019/12/09 17:36 CST    0.71   1.28    8  167   11  71.6  65.3 1010.4 16.3  1.012 -99.9 -99.99 -9.99
2019/12/09 17:42 CST    0.73   1.33    7  170   10  71.4  65.1 1010.5 16.3  1.012 -99.9 -99.99 -9.99
2019/12/09 17:48 CST    0.75   1.36    7  165    9  70.9  65.1 1010.6 16.3  1.012 -99.9 -99.99 -9.99
2019/12/09 17:54 CST    0.77   1.41    7  172   10  70.9  65.1 1010.6 16.3  1.012 -99.9 -99.99 -9.99
2019/12/09 18:00 CST    0.78   1.43    7  173    9  70.7  65.1 1010.7 16.3  1.012 -99.9 -99.99 -9.99
2019/12/09 18:06 CST    0.80   1.43    7  169    9  70.3  65.1 1010.8 16.3  1.012 -99.9 -99.99 -9.99
2019/12/09 18:12 CST    0.82   1.42    4  174    8  70.0  65.1 1010.9 16.3  1.012 -99.9 -99.99 -9.99
2019/12/09 18:18 CST    0.84   1.45    5  167    7  70.2  65.1 1011.0 16.3  1.012 -99.9 -99.99 -9.99
2019/12/09 18:24 CST    0.85   1.48    6  164    8  70.0  65.1 1011.0 16.3  1.012 -99.9 -99.99 -9.99
2019/12/09 18:30 CST    0.87   1.46    5  159    7  69.8  65.1 1011.0 16.3  1.012 -99.9 -99.99 -9.99
2019/12/09 18:36 CST    0.88   1.51    4  155    7  70.0  65.1 1011.1 16.3  1.012 -99.9 -99.99 -9.99
2019/12/09 18:42 CST    0.90   1.53    4  149    6  70.0  65.1 1011.2 16.3  1.012 -99.9 -99.99 -9.99
2019/12/09 18:48 CST    0.91   1.54    4  150    6  70.0  65.1 1011.2 16.3  1.012 -99.9 -99.99 -9.99
2019/12/09 18:54 CST    0.92   1.52    4  150    6  69.8  65.1 1011.2 16.4  1.012 -99.9 -99.99 -9.99
2019/12/09 19:00 CST    0.94   1.51    5  151    6  69.8  65.1 1011.3 16.4  1.012 -99.9 -99.99 -9.99
2019/12/09 19:06 CST    0.95   1.55    4  152    7  70.0  65.1 1011.3 16.4  1.012 -99.9 -99.99 -9.99
2019/12/09 19:12 CST    0.96   1.57    7  147    9  70.3  65.1 1011.3 16.4  1.012 -99.9 -99.99 -9.99
2019/12/09 19:18 CST    0.97   1.57    7  144   10  70.2  65.1 1011.4 16.5  1.012 -99.9 -99.99 -9.99
2019/12/09 19:24 CST    0.98   1.56    5  146    8  70.2  65.1 1011.5 16.5  1.012 -99.9 -99.99 -9.99
2019/12/09 19:30 CST    0.99   1.60    5  152    7  70.2  65.1 1011.5 16.5  1.012 -99.9 -99.99 -9.99
2019/12/09 19:36 CST    1.00   1.56    5  152    7  70.2  65.3 1011.4 16.5  1.012 -99.9 -99.99 -9.99
2019/12/09 19:42 CST    1.01   1.61    7  152    9  70.0  65.3 1011.4 16.5  1.012 -99.9 -99.99 -9.99
2019/12/09 19:48 CST    1.01   1.59    5  150    9  69.4  65.5 1011.4 16.5  1.012 -99.9 -99.99 -9.99
2019/12/09 19:54 CST    1.02   1.60    5  152    7  69.6  65.5 1011.4 16.5  1.012 -99.9 -99.99 -9.99
2019/12/09 20:00 CST    1.03   1.57    4  161    7  69.3  65.5 1011.4 16.5  1.012 -99.9 -99.99 -9.99
2019/12/09 20:06 CST    1.03   1.59    3  154    5  68.9  65.5 1011.5 16.5  1.012 -99.9 -99.99 -9.99
2019/12/09 20:12 CST    1.04   1.59    4  145    6  69.3  65.5 1011.5 16.5  1.012 -99.9 -99.99 -9.99
2019/12/09 20:18 CST    1.04   1.63    4  147    6  69.1  65.5 1011.5 16.6  1.012 -99.9 -99.99 -9.99
2019/12/09 20:24 CST    1.04   1.66    4  143    6  68.9  65.5 1011.6 16.6  1.012 -99.9 -99.99 -9.99
2019/12/09 20:30 CST    1.05   1.49    4  139    5  68.7  65.5 1011.6 16.6  1.012 -99.9 -99.99 -9.99
2019/12/09 20:36 CST    1.05   1.64    4  128    5  68.7  65.7 1011.7 16.6  1.012 -99.9 -99.99 -9.99
2019/12/09 20:42 CST    1.05   1.64    6  129    7  69.1  65.7 1011.6 16.6  1.012 -99.9 -99.99 -9.99
2019/12/09 20:48 CST    1.05   1.68    4  129    7  68.9  65.7 1011.6 16.6  1.012 -99.9 -99.99 -9.99
2019/12/09 20:54 CST    1.06   1.61    6  131    7  68.4  65.7 1011.5 16.6  1.012 -99.9 -99.99 -9.99
2019/12/09 21:00 CST    1.06   1.60    5  136    7  68.4  65.7 1011.5 16.6  1.012 -99.9 -99.99 -9.99
2019/12/09 21:06 CST    1.06   1.59    5  139    6  68.5  65.7 1011.5 16.6  1.012 -99.9 -99.99 -9.99
2019/12/09 21:12 CST    1.06   1.65    3  141    5  68.4  65.7 1011.6 16.7  1.012 -99.9 -99.99 -9.99
2019/12/09 21:18 CST    1.06   1.63    2  147    5  68.5  65.8 1011.6 16.6  1.012 -99.9 -99.99 -9.99
2019/12/09 21:24 CST    1.06   1.64    3  146    4  68.5  65.8 1011.5 16.6  1.012 -99.9 -99.99 -9.99
2019/12/09 21:30 CST    1.06   1.64    2  162    4  68.5  65.8 1011.5 16.6  1.012 -99.9 -99.99 -9.99
2019/12/09 21:36 CST    1.06   1.63    2  175    3  68.5  65.8 1011.6 16.6  1.012 -99.9 -99.99 -9.99
2019/12/09 21:42 CST    1.06   1.66    3  157    4  68.9  65.8 1011.6 16.6  1.012 -99.9 -99.99 -9.99
2019/12/09 21:48 CST    1.06   1.64    2  156    4  68.7  65.8 1011.7 16.7  1.012 -99.9 -99.99 -9.99
2019/12/09 21:54 CST    1.06   1.61    2  152    3  68.7  65.8 1011.8 16.7  1.012 -99.9 -99.99 -9.99
2019/12/09 22:00 CST    1.06   1.63    1  147    2  68.7  65.8 1011.9 16.7  1.012 -99.9 -99.99 -9.99
2019/12/09 22:06 CST    1.06   1.64    2  145    3  68.7  65.8 1012.0 16.7  1.012 -99.9 -99.99 -9.99
2019/12/09 22:12 CST    1.06   1.65    2  144    3  68.7  65.8 1012.0 16.7  1.012 -99.9 -99.99 -9.99
2019/12/09 22:18 CST    1.06   1.63    1  152    3  68.7  65.8 1012.1 16.7  1.012 -99.9 -99.99 -9.99
2019/12/09 22:24 CST    1.06   1.60    2  169    3  68.9  65.8 1012.2 16.7  1.012 -99.9 -99.99 -9.99
2019/12/09 22:30 CST    1.05   1.63    3  172    4  68.7  65.8 1012.3 16.7  1.012 -99.9 -99.99 -9.99
2019/12/09 22:36 CST    1.05   1.60    3  192    4  68.7  65.8 1012.3 16.7  1.012 -99.9 -99.99 -9.99
2019/12/09 22:42 CST    1.05   1.53    3  171    4  68.9  65.8 1012.4 16.7  1.012 -99.9 -99.99 -9.99
2019/12/09 22:48 CST    1.05   1.58    3  179    4  68.9  65.8 1012.4 16.7  1.012 -99.9 -99.99 -9.99
2019/12/09 22:54 CST    1.04   1.60    3  191    4  68.7  65.8 1012.3 16.7  1.012 -99.9 -99.99 -9.99
2019/12/09 23:00 CST    1.04   1.55    1  168    4  68.5  65.8 1012.3 16.7  1.012 -99.9 -99.99 -9.99
2019/12/09 23:06 CST    1.04   1.53    2  187    3  68.5  65.8 1012.3 16.7  1.012 -99.9 -99.99 -9.99
2019/12/09 23:12 CST    1.03   1.51    1  162    3  68.5  65.8 1012.3 16.7  1.012 -99.9 -99.99 -9.99
2019/12/09 23:18 CST    1.03   1.53    1  158    3  68.5  66.0 1012.2 16.7  1.012 -99.9 -99.99 -9.99
2019/12/09 23:24 CST    1.03   1.58    2  148    3  68.4  66.0 1012.3 16.7  1.012 -99.9 -99.99 -9.99
2019/12/09 23:30 CST    1.02   1.49    1  124    2  68.2  66.0 1012.3 16.7  1.012 -99.9 -99.99 -9.99
2019/12/09 23:36 CST    1.02   1.50    3  143    4  68.5  66.0 1012.4 16.7  1.012 -99.9 -99.99 -9.99
2019/12/09 23:42 CST    1.01   1.54    2  114    3  67.8  66.0 1012.4 16.7  1.012 -99.9 -99.99 -9.99
2019/12/09 23:48 CST    1.01   1.52    3   97    3  68.2  66.0 1012.1 16.7  1.012 -99.9 -99.99 -9.99
2019/12/09 23:54 CST    1.00   1.48    3  124    4  68.2  66.0 1012.4 16.7  1.012 -99.9 -99.99 -9.99
2019/12/10 00:00 CST    1.00   1.48    2  128    4  68.4  66.0 1012.3 16.7  1.012 -99.9 -99.99 -9.99
2019/12/10 00:06 CST    0.99   1.49    4  125    5  68.4  66.0 1012.2 16.7  1.012 -99.9 -99.99 -9.99
2019/12/10 00:12 CST    0.99   1.51    2  127    4  68.2  66.0 1012.3 16.7  1.012 -99.9 -99.99 -9.99
2019/12/10 00:18 CST    0.98   1.47    1  149    2  68.5  66.0 1012.3 16.6  1.012 -99.9 -99.99 -9.99
2019/12/10 00:24 CST    0.98   1.46    2  118    3  68.4  66.0 1012.3 16.6  1.012 -99.9 -99.99 -9.99
2019/12/10 00:30 CST    0.97   1.48    1  150    2  68.5  66.0 1012.4 16.6  1.012 -99.9 -99.99 -9.99
2019/12/10 00:36 CST    0.97   1.49    2  153    2  68.9  66.0 1012.4 16.6  1.012 -99.9 -99.99 -9.99
2019/12/10 00:42 CST    0.97   1.46    2  146    3  69.1  66.0 1012.3 16.6  1.012 -99.9 -99.99 -9.99
2019/12/10 00:48 CST    0.96   1.45    2  166    3  69.3  66.0 1012.4 16.6  1.012 -99.9 -99.99 -9.99
2019/12/10 00:54 CST    0.96   1.46    3  158    3  69.3  66.0 1012.3 16.6  1.012 -99.9 -99.99 -9.99
2019/12/10 01:00 CST    0.96   1.47    2  120    2  68.9  66.2 1012.3 16.5  1.012 -99.9 -99.99 -9.99
2019/12/10 01:06 CST    0.96   1.48    1  106    2  68.5  66.2 1012.3 16.5  1.012 -99.9 -99.99 -9.99
2019/12/10 01:12 CST    0.96   1.47    2  101    2  68.5  66.2 1012.2 16.5  1.012 -99.9 -99.99 -9.99
2019/12/10 01:18 CST    0.96   1.46    3  109    4  68.4  66.2 1012.2 16.5  1.012 -99.9 -99.99 -9.99
2019/12/10 01:24 CST    0.95   1.49    2  124    3  68.4  66.2 1012.2 16.5  1.012 -99.9 -99.99 -9.99
2019/12/10 01:30 CST    0.95   1.33    1  299    2  68.7  66.2 1012.2 16.5  1.012 -99.9 -99.99 -9.99
2019/12/10 01:36 CST    0.95   1.48    2  152    4  69.4  66.2 1012.2 16.5  1.012 -99.9 -99.99 -9.99
2019/12/10 01:42 CST    0.95   1.40    2  170    5  70.0  66.2 1012.2 16.5  1.012 -99.9 -99.99 -9.99
2019/12/10 01:48 CST    0.95   1.42    2  191    4  70.0  66.2 1012.5 16.5  1.012 -99.9 -99.99 -9.99
2019/12/10 01:54 CST    0.95   1.46    4  263    5  70.0  66.2 1012.4 16.5  1.012 -99.9 -99.99 -9.99
2019/12/10 02:00 CST    0.95   1.43    6  215   10  69.8  66.2 1012.5 16.4  1.012 -99.9 -99.99 -9.99
2019/12/10 02:06 CST    0.95   1.45    4  160    9  69.8  66.2 1012.0 16.4  1.012 -99.9 -99.99 -9.99
2019/12/10 02:12 CST    0.95   1.45    3  204    5  69.8  66.2 1012.3 16.4  1.012 -99.9 -99.99 -9.99
2019/12/10 02:18 CST    0.95   1.42    1  164    3  69.4  66.2 1012.1 16.4  1.012 -99.9 -99.99 -9.99
2019/12/10 02:24 CST    0.95   1.40    2  114    3  68.9  66.2 1012.1 16.4  1.012 -99.9 -99.99 -9.99
2019/12/10 02:30 CST    0.95   1.38    3  107    4  68.4  66.2 1012.0 16.4  1.012 -99.9 -99.99 -9.99
2019/12/10 02:36 CST    0.95   1.40    4  142    4  69.1  66.2 1012.1 16.4  1.012 -99.9 -99.99 -9.99
2019/12/10 02:42 CST    0.94   1.44    3  128    4  69.1  66.2 1012.0 16.4  1.012 -99.9 -99.99 -9.99
2019/12/10 02:48 CST    0.94   1.33    2  157    3  69.1  66.2 1012.0 16.4  1.012 -99.9 -99.99 -9.99
2019/12/10 02:54 CST    0.94   1.36    2  192    3  69.3  66.2 1012.1 16.4  1.012 -99.9 -99.99 -9.99
2019/12/10 03:00 CST    0.94   1.35    1  199    3  69.4  66.2 1012.2 16.3  1.012 -99.9 -99.99 -9.99
2019/12/10 03:06 CST    0.93   1.41    8  310   14  65.5  66.2 1012.5 16.3  1.012 -99.9 -99.99 -9.99
2019/12/10 03:12 CST    0.93   1.44   14  333   21  65.3  66.2 1012.6 16.3  1.012 -99.9 -99.99 -9.99
2019/12/10 03:18 CST    0.92   1.45   17  350   24  62.6  66.2 1012.9 16.3  1.012 -99.9 -99.99 -9.99
2019/12/10 03:24 CST    0.92   1.44   14  341   20  62.4  66.2 1013.3 16.3  1.012 -99.9 -99.99 -9.99
2019/12/10 03:30 CST    0.92   1.41   17  336   21  62.1  66.2 1013.2 16.3  1.012 -99.9 -99.99 -9.99
2019/12/10 03:36 CST    0.91   1.38   19  322   23  62.2  66.2 1013.6 16.3  1.012 -99.9 -99.99 -9.99
2019/12/10 03:42 CST    0.90   1.30   17  333   23  62.6  66.2 1013.7 16.2  1.012 -99.9 -99.99 -9.99
2019/12/10 03:48 CST    0.90   1.32   14  353   20  62.1  66.2 1013.5 16.1  1.012 -99.9 -99.99 -9.99
2019/12/10 03:54 CST    0.89   1.34   14  359   21  61.3  66.2 1013.5 16.0  1.011 -99.9 -99.99 -9.99
2019/12/10 04:00 CST    0.89   1.31   14  349   19  61.5  66.2 1013.8 16.0  1.011 -99.9 -99.99 -9.99
2019/12/10 04:06 CST    0.88   1.19   14  355   18  61.3  66.2 1013.6 16.0  1.011 -99.9 -99.99 -9.99
2019/12/10 04:12 CST    0.88   1.10   15   11   19  61.3  66.2 1013.5 15.9  1.011 -99.9 -99.99 -9.99
2019/12/10 04:18 CST    0.87   1.18   19   12   24  61.2  66.2 1013.6 15.9  1.011 -99.9 -99.99 -9.99
2019/12/10 04:24 CST    0.86   1.12   21   10   26  60.8  66.2 1013.6 15.9  1.011 -99.9 -99.99 -9.99
2019/12/10 04:30 CST    0.86   1.14   17   13   25  60.8  66.2 1013.8 15.9  1.011 -99.9 -99.99 -9.99
2019/12/10 04:36 CST    0.85   1.15   17    4   25  60.4  66.2 1013.9 15.9  1.011 -99.9 -99.99 -9.99
2019/12/10 04:42 CST    0.84   1.17   21    3   24  60.3  66.2 1014.2 15.9  1.011 -99.9 -99.99 -9.99
2019/12/10 04:48 CST    0.83   1.19   19    3   25  60.1  66.0 1014.3 15.9  1.011 -99.9 -99.99 -9.99
2019/12/10 04:54 CST    0.83   1.20   16    4   24  59.9  66.0 1014.3 15.9  1.011 -99.9 -99.99 -9.99
2019/12/10 05:00 CST    0.82   1.11   18    8   25  59.5  66.0 1014.4 15.9  1.011 -99.9 -99.99 -9.99
2019/12/10 05:06 CST    0.81   1.22   16   14   24  59.5  66.0 1014.3 15.9  1.011 -99.9 -99.99 -9.99
2019/12/10 05:12 CST    0.80   1.18   19    6   26  59.4  66.0 1014.5 15.9  1.011 -99.9 -99.99 -9.99
2019/12/10 05:18 CST    0.79   1.17   17   12   23  59.2  66.0 1014.7 15.9  1.011 -99.9 -99.99 -9.99
2019/12/10 05:24 CST    0.78   1.18   18    9   23  59.0  66.0 1014.5 15.9  1.011 -99.9 -99.99 -9.99
2019/12/10 05:30 CST    0.77   1.23   19   13   25  59.2  66.0 1014.7 15.9  1.011 -99.9 -99.99 -9.99
2019/12/10 05:36 CST    0.76   1.30   19   17   23  59.0  66.0 1014.6 15.9  1.011 -99.9 -99.99 -9.99
2019/12/10 05:42 CST    0.75   1.28   19   11   29  59.0  66.0 1014.6 15.9  1.011 -99.9 -99.99 -9.99
2019/12/10 05:48 CST    0.73   1.28   17    8   26  59.0  65.8 1014.6 16.0  1.011 -99.9 -99.99 -9.99
2019/12/10 05:54 CST    0.72   1.22   15    8   19  59.0  65.8 1015.1 16.0  1.011 -99.9 -99.99 -9.99
2019/12/10 06:00 CST    0.71   1.31   14    3   25  59.0  65.8 1015.5 16.0  1.011 -99.9 -99.99 -9.99
2019/12/10 06:06 CST    0.69   1.30   13  352   20  59.2  65.8 1015.8 16.0  1.011 -99.9 -99.99 -9.99
2019/12/10 06:12 CST    0.68   1.23   13  357   18  59.0  65.8 1016.1 15.9  1.011 -99.9 -99.99 -9.99
2019/12/10 06:18 CST    0.66   1.15   11  347   20  58.8  65.7 1016.4 16.0  1.012 -99.9 -99.99 -9.99
2019/12/10 06:24 CST    0.65   1.18   15  345   19  58.8  65.7 1016.5 16.0  1.011 -99.9 -99.99 -9.99
2019/12/10 06:30 CST    0.63   1.16   16  349   20  58.6  65.7 1016.5 15.9  1.011 -99.9 -99.99 -9.99
2019/12/10 06:36 CST    0.61   1.22   20  351   23  58.1  65.7 1016.4 15.9  1.011 -99.9 -99.99 -9.99
2019/12/10 06:42 CST    0.60   1.11   15    3   26  58.1  65.7 1016.4 15.9  1.011 -99.9 -99.99 -9.99
2019/12/10 06:48 CST    0.58   1.00   17    2   23  57.4  65.5 1016.5 15.9  1.011 -99.9 -99.99 -9.99
2019/12/10 06:54 CST    0.56   0.95   15  353   20  57.0  65.5 1016.7 15.8  1.011 -99.9 -99.99 -9.99
2019/12/10 07:00 CST    0.54   1.04   13  354   17  56.7  65.5 1016.9 15.8  1.011 -99.9 -99.99 -9.99
2019/12/10 07:06 CST    0.52   0.95   12  358   18  56.8  65.5 1017.0 15.8  1.011 -99.9 -99.99 -9.99
2019/12/10 07:12 CST    0.50   0.85   17    5   22  56.3  65.5 1016.9 15.8  1.011 -99.9 -99.99 -9.99
2019/12/10 07:18 CST    0.48   0.84   15    3   20  56.1  65.5 1017.1 15.8  1.011 -99.9 -99.99 -9.99
2019/12/10 07:24 CST    0.46   0.85   14    4   20  56.1  65.5 1017.2 15.7  1.011 -99.9 -99.99 -9.99
2019/12/10 07:30 CST    0.44   0.73   15   15   19  56.1  65.5 1017.0 15.7  1.011 -99.9 -99.99 -9.99
2019/12/10 07:36 CST    0.42   0.78   13    6   20  55.9  65.5 1017.4 15.7  1.011 -99.9 -99.99 -9.99
2019/12/10 07:42 CST    0.40   0.77   13    5   19  55.8  65.3 1017.4 15.7  1.011 -99.9 -99.99 -9.99
2019/12/10 07:48 CST    0.38   0.84   12    0   18  55.9  65.3 1017.7 15.7  1.011 -99.9 -99.99 -9.99
2019/12/10 07:54 CST    0.36   0.80   11    3   21  55.6  65.3 1018.0 15.7  1.011 -99.9 -99.99 -9.99
2019/12/10 08:00 CST    0.34   0.74   13  350   20  55.6  65.3 1018.3 15.6  1.011 -99.9 -99.99 -9.99
2019/12/10 08:06 CST    0.32   0.66   14  356   22  55.2  65.3 1018.4 15.6  1.011 -99.9 -99.99 -9.99
2019/12/10 08:12 CST    0.29   0.74   15    7   23  54.7  65.3 1018.4 15.6  1.011 -99.9 -99.99 -9.99
2019/12/10 08:18 CST    0.27   0.66   15    6   24  54.5  65.3 1018.3 15.6  1.011 -99.9 -99.99 -9.99
2019/12/10 08:24 CST    0.25   0.68   16    0   23  54.3  65.3 1018.3 15.6  1.011 -99.9 -99.99 -9.99
2019/12/10 08:30 CST    0.23   0.64   15    5   21  54.0  65.3 1018.5 15.6  1.011 -99.9 -99.99 -9.99
2019/12/10 08:36 CST    0.21   0.65   15  359   19  54.0  65.3 1018.6 15.6  1.011 -99.9 -99.99 -9.99
2019/12/10 08:42 CST    0.18   0.63   15  358   22  53.4  65.3 1018.7 15.5  1.011 -99.9 -99.99 -9.99
2019/12/10 08:48 CST    0.16   0.56   16  355   23  53.4  65.3 1019.0 15.5  1.011 -99.9 -99.99 -9.99
2019/12/10 08:54 CST    0.14   0.55   14  351   20  53.4  65.3 1019.2 15.5  1.011 -99.9 -99.99 -9.99
2019/12/10 09:00 CST    0.12   0.54   12  357   21  53.6  65.3 1019.3 15.5  1.011 -99.9 -99.99 -9.99
2019/12/10 09:06 CST    0.09   0.37   16    0   21  53.2  65.3 1019.5 15.5  1.011 -99.9 -99.99 -9.99
2019/12/10 09:12 CST    0.07   0.48   14    0   22  53.2  65.3 1019.9 15.4  1.011 -99.9 -99.99 -9.99
2019/12/10 09:18 CST    0.05   0.44   13  349   18  53.4  65.1 1020.4 15.4  1.011 -99.9 -99.99 -9.99
2019/12/10 09:24 CST    0.03   0.43   13  348   20  54.0  65.1 1020.4 15.4  1.011 -99.9 -99.99 -9.99
2019/12/10 09:30 CST    0.01   0.53   14  352   20  53.4  65.1 1020.6 14.8  1.011 -99.9 -99.99 -9.99
2019/12/10 09:36 CST   -0.01   0.54   16  356   20  52.9  65.1 1020.7 15.4  1.011 -99.9 -99.99 -9.99
2019/12/10 09:42 CST   -0.03   0.38   15  350   19  52.7  65.1 1020.8 15.3  1.011 -99.9 -99.99 -9.99
2019/12/10 09:48 CST   -0.05   0.36   14    6   18  52.9  65.1 1020.8 15.3  1.011 -99.9 -99.99 -9.99
2019/12/10 09:54 CST   -0.07   0.32   15    2   19  52.9  65.1 1020.8 15.3  1.011 -99.9 -99.99 -9.99
2019/12/10 10:00 CST   -0.09   0.28   15    8   20  52.9  65.1 1020.7 15.3  1.011 -99.9 -99.99 -9.99
2019/12/10 10:06 CST   -0.11   0.19   17   12   23  52.7  65.1 1020.7 15.2  1.011 -99.9 -99.99 -9.99
2019/12/10 10:12 CST   -0.13   0.19   15   14   22  52.9  65.1 1020.7 15.2  1.011 -99.9 -99.99 -9.99
2019/12/10 10:18 CST   -0.14   0.21   15   16   20  52.9  65.1 1020.6 14.0  1.010 -99.9 -99.99 -9.99
2019/12/10 10:24 CST   -0.16   0.14   16   13   19  53.1  65.1 1020.3 15.0  1.011 -99.9 -99.99 -9.99
2019/12/10 10:30 CST   -0.17  -0.14   19   25   27  53.1  65.1 1020.2 15.1  1.011 -99.9 -99.99 -9.99
2019/12/10 10:36 CST   -0.19   0.01   17   21   25  53.2  65.1 1020.0 15.0  1.011 -99.9 -99.99 -9.99
2019/12/10 10:42 CST   -0.21  -0.14   18   25   25  53.2  65.1 1020.1 15.1  1.011 -99.9 -99.99 -9.99
2019/12/10 10:48 CST   -0.22  -0.04   16   21   22  53.4  65.1 1020.1 15.1  1.011 -99.9 -99.99 -9.99
2019/12/10 10:54 CST   -0.23  -0.05   17   17   22  53.4  65.1 1020.1 15.0  1.011 -99.9 -99.99 -9.99
2019/12/10 11:00 CST   -0.25  -0.13   21   19   24  53.4  65.1 1020.3 15.0  1.011 -99.9 -99.99 -9.99
2019/12/10 11:06 CST   -0.26  -0.17   16   11   23  53.2  65.1 1020.6 14.8  1.011 -99.9 -99.99 -9.99
2019/12/10 11:12 CST   -0.27  -0.18   19   13   27  53.2  65.1 1020.5 15.0  1.011 -99.9 -99.99 -9.99
2019/12/10 11:18 CST   -0.28  -0.18   16   17   22  53.2  65.1 1020.7 15.0  1.011 -99.9 -99.99 -9.99
2019/12/10 11:24 CST   -0.30  -0.21   16   21   22  52.9  65.1 1020.6 14.9  1.011 -99.9 -99.99 -9.99
2019/12/10 11:30 CST   -0.31  -0.10   19   24   26  53.1  64.9 1020.0 14.8  1.011 -99.9 -99.99 -9.99
2019/12/10 11:36 CST   -0.32  -0.11   19   17   27  53.1  64.9 1020.0 15.0  1.011 -99.9 -99.99 -9.99
2019/12/10 11:42 CST   -0.33  -0.18   17   12   22  52.9  64.9 1020.1 15.0  1.011 -99.9 -99.99 -9.99
2019/12/10 11:48 CST   -0.34  -0.11   15   12   25  53.2  64.9 1020.3 15.0  1.011 -99.9 -99.99 -9.99
2019/12/10 11:54 CST   -0.34  -0.15   16   15   22  52.9  64.9 1020.4 15.0  1.011 -99.9 -99.99 -9.99
2019/12/10 12:00 CST   -0.35  -0.02   16   12   22  52.9  65.1 1020.8 15.1  1.011 -99.9 -99.99 -9.99
2019/12/10 12:06 CST   -0.36  -0.04   16    9   21  53.1  65.1 1020.9 15.2  1.011 -99.9 -99.99 -9.99
2019/12/10 12:12 CST   -0.36  -0.10   15    3   20  53.1  65.3 1020.8 15.2  1.011 -99.9 -99.99 -9.99
2019/12/10 12:18 CST   -0.37  -0.14   20  360   23  52.7  65.3 1020.8 15.2  1.011 -99.9 -99.99 -9.99
2019/12/10 12:24 CST   -0.37   0.09   16    5   25  52.9  65.3 1020.7 15.3  1.011 -99.9 -99.99 -9.99
2019/12/10 12:30 CST   -0.38  -0.05   14    7   23  52.9  65.1 1020.9 15.3  1.011 -99.9 -99.99 -9.99
2019/12/10 12:36 CST   -0.38  -0.21   16   10   22  52.7  65.1 1020.9 15.3  1.011 -99.9 -99.99 -9.99
2019/12/10 12:42 CST   -0.38  -0.19   19   12   23  52.7  65.1 1021.0 15.3  1.011 -99.9 -99.99 -9.99
2019/12/10 12:48 CST   -0.38  -0.18   16   11   23  52.5  65.1 1021.0 15.2  1.011 -99.9 -99.99 -9.99
2019/12/10 12:54 CST   -0.38  -0.20   15   10   21  52.7  65.1 1020.8 15.2  1.011 -99.9 -99.99 -9.99
2019/12/10 13:00 CST   -0.37  -0.27   15    8   20  52.9  65.1 1021.0 15.2  1.011 -99.9 -99.99 -9.99
2019/12/10 13:06 CST   -0.37  -0.31   18    9   23  52.9  64.9 1020.9 15.1  1.011 -99.9 -99.99 -9.99
2019/12/10 13:12 CST   -0.36  -0.33   17   11   24  52.9  64.8 1021.0 15.1  1.011 -99.9 -99.99 -9.99
2019/12/10 13:18 CST   -0.36  -0.33   17   16   26  52.9  64.8 1020.9 15.1  1.011 -99.9 -99.99 -9.99
2019/12/10 13:24 CST   -0.35  -0.34   19   15   28  53.1  64.8 1021.1 15.1  1.011 -99.9 -99.99 -9.99
2019/12/10 13:30 CST   -0.34  -0.44   17    8   23  52.9  64.9 1020.9 15.1  1.011 -99.9 -99.99 -9.99
2019/12/10 13:36 CST   -0.33  -0.45   18   17   22  52.7  64.9 1020.8 15.0  1.011 -99.9 -99.99 -9.99
2019/12/10 13:42 CST   -0.32  -0.44   14   17   25  52.7  64.8 1020.9 15.0  1.011 -99.9 -99.99 -9.99
2019/12/10 13:48 CST   -0.30  -0.44   18   26   26  52.7  64.8 1020.9 15.0  1.011 -99.9 -99.99 -9.99
2019/12/10 13:54 CST   -0.29  -0.43   18   28   24  52.7  64.8 1020.9 15.0  1.011 -99.9 -99.99 -9.99
2019/12/10 14:00 CST   -0.27  -0.46   18   25   24  52.5  64.8 1021.1 15.0  1.011 -99.9 -99.99 -9.99
2019/12/10 14:06 CST   -0.26  -0.73   18   18   27  52.5  64.8 1021.3 15.0  1.011 -99.9 -99.99 -9.99
2019/12/10 14:12 CST   -0.24  -0.59   18   28   23  52.7  64.8 1021.2 14.9  1.011 -99.9 -99.99 -9.99
2019/12/10 14:18 CST   -0.22  -0.56   20   31   24  52.3  64.6 1020.7 15.0  1.011 -99.9 -99.99 -9.99
2019/12/10 14:24 CST   -0.20  -0.54   20   26   26  52.2  64.6 1020.9 15.0  1.011 -99.9 -99.99 -9.99
2019/12/10 14:30 CST   -0.19  -0.49   19   29   26  52.3  64.6 1021.0 14.9  1.011 -99.9 -99.99 -9.99
2019/12/10 14:36 CST   -0.17  -0.49   17   31   24  52.2  64.6 1021.2 14.9  1.011 -99.9 -99.99 -9.99
2019/12/10 14:42 CST   -0.15  -0.51   16   27   22  52.2  64.6 1021.3 14.9  1.011 -99.9 -99.99 -9.99
2019/12/10 14:48 CST   -0.12  -0.42   15   32   20  52.5  64.6 1021.5 14.9  1.011 -99.9 -99.99 -9.99
2019/12/10 14:54 CST   -0.10  -0.37   16   32   19  52.3  64.6 1021.5 14.9  1.011 -99.9 -99.99 -9.99
2019/12/10 15:00 CST   -0.08  -0.31   14   37   20  52.3  64.6 1021.4 14.9  1.011 -99.9 -99.99 -9.99
2019/12/10 15:06 CST   -0.06  -0.16   14   22   20  52.3  64.8 1021.6 14.9  1.011 -99.9 -99.99 -9.99
2019/12/10 15:12 CST   -0.04 -99.99 -999 -999 -999 -99.9 -99.9 -999.9 -9.9 -9.999 -99.9 -99.99 -9.99
2019/12/10 15:18 CST   -0.01 -99.99 -999 -999 -999 -99.9 -99.9 -999.9 -9.9 -9.999 -99.9 -99.99 -9.99